Time,TemperatureF,DewpointF,PressureIn,WindDirection,WindDirectionDegrees,WindSpeedMPH,WindSpeedGustMPH,Humidity,HourlyPrecipIn,Conditions,Clouds,dailyrainin,SoftwareType,DateUTC
2013-06-14 00:02:00,69.6,56.0,26.37,NW,323,0.0,0.0,62,0.00,,---,0.00,VWS V14.01,2013-06-14 05:02:00,
2013-06-14 00:07:00,69.1,56.0,26.37,WNW,300,0.0,0.0,63,0.00,,---,0.00,VWS V14.01,2013-06-14 05:07:00,
2013-06-14 00:08:00,69.1,56.0,26.37,WNW,300,0.0,0.0,63,0.00,,---,0.00,VWS V14.01,2013-06-14 05:08:00,
2013-06-14 00:12:00,69.1,56.0,26.37,WNW,300,0.0,0.0,63,0.00,,---,0.00,VWS V14.01,2013-06-14 05:12:00,
2013-06-14 00:13:00,68.9,55.8,26.37,WNW,300,0.0,0.0,63,0.00,,---,0.00,VWS V14.01,2013-06-14 05:13:00,
2013-06-14 00:17:00,68.9,55.8,26.43,WNW,300,0.0,0.0,63,0.00,,---,0.00,VWS V14.01,2013-06-14 05:17:00,
2013-06-14 00:18:00,68.9,55.8,26.43,WNW,300,0.0,0.0,63,0.00,,---,0.00,VWS V14.01,2013-06-14 05:18:00,
2013-06-14 00:22:00,68.7,55.6,26.43,WNW,300,0.0,0.0,63,0.00,,---,0.00,VWS V14.01,2013-06-14 05:22:00,
2013-06-14 00:23:00,68.7,55.6,26.43,WNW,300,0.0,0.0,63,0.00,,---,0.00,VWS V14.01,2013-06-14 05:23:00,
2013-06-14 00:27:00,68.5,55.9,26.43,WNW,300,0.0,0.0,64,0.00,,---,0.00,VWS V14.01,2013-06-14 05:27:00,
2013-06-14 00:28:00,68.5,55.9,26.43,WNW,300,0.0,0.0,64,0.00,,---,0.00,VWS V14.01,2013-06-14 05:28:00,
2013-06-14 00:32:00,68.4,56.2,26.43,WNW,300,0.0,0.0,65,0.00,,---,0.00,VWS V14.01,2013-06-14 05:32:00,
2013-06-14 00:33:00,68.4,56.2,26.43,WNW,300,0.0,0.0,65,0.00,,---,0.00,VWS V14.01,2013-06-14 05:33:00,
2013-06-14 00:38:00,68.2,56.4,26.46,WNW,300,0.0,0.0,66,0.00,,---,0.00,VWS V14.01,2013-06-14 05:38:00,
2013-06-14 00:43:00,68.2,56.4,26.43,WNW,300,0.0,0.0,66,0.00,,---,0.00,VWS V14.01,2013-06-14 05:43:00,
2013-06-14 00:44:00,68.2,56.4,26.43,WNW,300,0.0,0.0,66,0.00,,---,0.00,VWS V14.01,2013-06-14 05:44:00,
2013-06-14 00:48:00,68.0,56.7,26.43,NNW,345,3.6,3.6,67,0.00,,---,0.00,VWS V14.01,2013-06-14 05:48:00,
2013-06-14 00:49:00,68.0,56.7,26.43,NNW,345,3.6,3.6,67,0.00,,---,0.00,VWS V14.01,2013-06-14 05:49:00,
2013-06-14 00:53:00,68.0,57.1,26.43,NNW,345,0.0,0.0,68,0.00,,---,0.00,VWS V14.01,2013-06-14 05:53:00,
2013-06-14 00:54:00,68.0,57.1,26.43,NNW,345,0.0,0.0,68,0.00,,---,0.00,VWS V14.01,2013-06-14 05:54:00,
2013-06-14 00:58:00,68.0,57.1,26.34,NNW,345,0.0,0.0,68,0.00,,---,0.00,VWS V14.01,2013-06-14 05:58:00,
2013-06-14 00:59:00,68.0,57.1,26.34,NNW,345,0.0,0.0,68,0.00,,---,0.00,VWS V14.01,2013-06-14 05:59:00,
2013-06-14 01:03:00,68.0,57.1,26.34,North,353,0.0,0.0,68,0.00,,---,0.00,VWS V14.01,2013-06-14 06:03:00,
2013-06-14 01:04:00,68.0,57.1,26.34,North,353,0.0,0.0,68,0.00,,---,0.00,VWS V14.01,2013-06-14 06:04:00,
2013-06-14 01:08:00,68.0,57.1,26.34,NE,52,0.0,0.0,68,0.00,,---,0.00,VWS V14.01,2013-06-14 06:08:00,
2013-06-14 01:09:00,68.0,57.1,26.34,NE,52,0.0,0.0,68,0.00,,---,0.00,VWS V14.01,2013-06-14 06:09:00,
2013-06-14 01:10:00,68.0,57.1,26.40,NE,52,0.0,0.0,68,0.00,,---,0.00,VWS V14.01,2013-06-14 06:10:00,
2013-06-14 01:13:00,68.0,57.5,26.40,WNW,282,2.2,2.2,69,0.00,,---,0.00,VWS V14.01,2013-06-14 06:13:00,
2013-06-14 01:14:00,68.0,57.5,26.40,WNW,282,2.2,2.2,69,0.00,,---,0.00,VWS V14.01,2013-06-14 06:14:00,
2013-06-14 01:15:00,68.0,57.9,26.40,WNW,282,2.2,2.2,70,0.00,,---,0.00,VWS V14.01,2013-06-14 06:15:00,
2013-06-14 01:18:00,68.0,57.9,26.40,WSW,251,0.0,3.1,70,0.00,,---,0.00,VWS V14.01,2013-06-14 06:18:00,
2013-06-14 01:19:00,68.0,57.9,26.40,WSW,251,0.0,3.1,70,0.00,,---,0.00,VWS V14.01,2013-06-14 06:19:00,
2013-06-14 01:20:00,68.0,57.9,26.40,ENE,71,0.0,0.0,70,0.00,,---,0.00,VWS V14.01,2013-06-14 06:20:00,
2013-06-14 01:24:00,68.2,57.6,26.40,NNE,29,2.2,2.2,69,0.00,,---,0.00,VWS V14.01,2013-06-14 06:24:00,
2013-06-14 01:25:00,68.2,57.6,26.40,WNW,284,3.6,3.6,69,0.00,,---,0.00,VWS V14.01,2013-06-14 06:25:00,
2013-06-14 01:29:00,68.2,57.6,26.40,North,8,0.0,0.0,69,0.00,,---,0.00,VWS V14.01,2013-06-14 06:29:00,
2013-06-14 01:30:00,68.2,57.6,26.40,North,8,0.0,0.0,69,0.00,,---,0.00,VWS V14.01,2013-06-14 06:30:00,
2013-06-14 01:31:00,68.2,57.6,26.40,NNE,30,2.7,2.7,69,0.00,,---,0.00,VWS V14.01,2013-06-14 06:31:00,
2013-06-14 01:34:00,68.2,57.6,26.40,WSW,252,0.0,0.0,69,0.00,,---,0.00,VWS V14.01,2013-06-14 06:34:00,
2013-06-14 01:35:00,68.2,57.6,26.40,WSW,252,0.0,0.0,69,0.00,,---,0.00,VWS V14.01,2013-06-14 06:35:00,
2013-06-14 01:36:00,68.2,57.6,26.40,NNW,339,5.8,5.8,69,0.00,,---,0.00,VWS V14.01,2013-06-14 06:36:00,
2013-06-14 01:39:00,68.2,55.1,26.40,SSW,206,2.7,2.7,63,0.00,,---,0.00,VWS V14.01,2013-06-14 06:39:00,
2013-06-14 01:40:00,68.2,55.1,26.40,SSW,206,2.7,2.7,63,0.00,,---,0.00,VWS V14.01,2013-06-14 06:40:00,
2013-06-14 01:41:00,68.2,55.1,26.43,SSW,206,2.7,2.7,63,0.00,,---,0.00,VWS V14.01,2013-06-14 06:41:00,
2013-06-14 01:44:00,68.2,55.1,26.43,NNE,27,2.2,2.2,63,0.00,,---,0.00,VWS V14.01,2013-06-14 06:44:00,
2013-06-14 01:45:00,68.2,55.1,26.43,NNE,27,2.2,2.2,63,0.00,,---,0.00,VWS V14.01,2013-06-14 06:45:00,
2013-06-14 01:46:00,68.2,55.1,26.43,North,357,0.0,0.0,63,0.00,,---,0.00,VWS V14.01,2013-06-14 06:46:00,
2013-06-14 01:49:00,68.2,55.1,26.43,NNE,15,2.2,2.2,63,0.00,,---,0.00,VWS V14.01,2013-06-14 06:49:00,
2013-06-14 01:50:00,68.2,55.1,26.43,NW,318,2.7,2.7,63,0.00,,---,0.00,VWS V14.01,2013-06-14 06:50:00,
2013-06-14 01:51:00,68.2,55.1,26.43,NW,318,2.7,2.7,63,0.00,,---,0.00,VWS V14.01,2013-06-14 06:51:00,
2013-06-14 01:54:00,68.0,52.7,24.42,NNE,21,4.0,4.0,58,0.00,,---,0.00,VWS V14.01,2013-06-14 06:54:00,
2013-06-14 01:56:00,68.0,52.7,24.42,WNW,300,0.0,0.0,58,0.00,,---,0.00,VWS V14.01,2013-06-14 06:56:00,
2013-06-14 01:57:00,68.0,52.7,24.42,WNW,300,0.0,0.0,58,0.00,,---,0.00,VWS V14.01,2013-06-14 06:57:00,
2013-06-14 01:59:00,67.8,51.1,24.42,WSW,240,0.0,0.0,55,0.00,,---,0.00,VWS V14.01,2013-06-14 06:59:00,
2013-06-14 02:01:00,67.8,51.1,24.42,WSW,240,0.0,0.0,55,0.00,,---,0.00,VWS V14.01,2013-06-14 07:01:00,
2013-06-14 02:02:00,67.8,51.1,24.42,East,83,0.0,0.0,55,0.00,,---,0.00,VWS V14.01,2013-06-14 07:02:00,
2013-06-14 02:05:00,67.6,50.4,24.42,ENE,73,0.0,0.0,54,0.00,,---,0.00,VWS V14.01,2013-06-14 07:05:00,
2013-06-14 02:06:00,67.6,50.4,24.42,NE,49,2.2,2.2,54,0.00,,---,0.00,VWS V14.01,2013-06-14 07:06:00,
2013-06-14 02:07:00,67.6,50.4,24.42,NE,49,2.2,2.2,54,0.00,,---,0.00,VWS V14.01,2013-06-14 07:07:00,
2013-06-14 02:10:00,67.5,49.8,24.42,West,261,2.7,2.7,53,0.00,,---,0.00,VWS V14.01,2013-06-14 07:10:00,
2013-06-14 02:11:00,67.5,49.8,24.42,West,261,2.7,2.7,53,0.00,,---,0.00,VWS V14.01,2013-06-14 07:11:00,
2013-06-14 02:12:00,67.5,49.8,24.42,West,261,0.0,2.7,53,0.00,,---,0.00,VWS V14.01,2013-06-14 07:12:00,
2013-06-14 02:15:00,67.3,49.6,26.40,ENE,58,0.0,0.0,53,0.00,,---,0.00,VWS V14.01,2013-06-14 07:15:00,
2013-06-14 02:16:00,67.3,49.6,26.40,ENE,58,0.0,0.0,53,0.00,,---,0.00,VWS V14.01,2013-06-14 07:16:00,
2013-06-14 02:17:00,67.3,49.6,26.40,NNE,32,0.0,0.0,53,0.00,,---,0.00,VWS V14.01,2013-06-14 07:17:00,
2013-06-14 02:20:00,67.3,49.6,26.40,North,0,2.2,2.2,53,0.00,,---,0.00,VWS V14.01,2013-06-14 07:20:00,
2013-06-14 02:21:00,67.3,49.6,26.40,ENE,57,0.0,0.0,53,0.00,,---,0.00,VWS V14.01,2013-06-14 07:21:00,
2013-06-14 02:22:00,67.3,49.6,26.40,SSW,195,0.0,0.0,53,0.00,,---,0.00,VWS V14.01,2013-06-14 07:22:00,
2013-06-14 02:23:00,67.3,49.6,26.40,SSW,195,0.0,0.0,53,0.00,,---,0.00,VWS V14.01,2013-06-14 07:23:00,
2013-06-14 02:25:00,67.1,48.9,26.49,SSW,195,0.0,0.0,52,0.00,,---,0.00,VWS V14.01,2013-06-14 07:25:00,
2013-06-14 02:26:00,67.1,48.9,26.49,SSW,195,0.0,0.0,52,0.00,,---,0.00,VWS V14.01,2013-06-14 07:26:00,
2013-06-14 02:27:00,67.1,48.9,26.49,NW,314,4.9,4.9,52,0.00,,---,0.00,VWS V14.01,2013-06-14 07:27:00,
2013-06-14 02:28:00,67.1,48.9,26.49,NW,314,4.9,4.9,52,0.00,,---,0.00,VWS V14.01,2013-06-14 07:28:00,
2013-06-14 02:30:00,67.1,48.9,26.49,NNW,335,2.7,2.7,52,0.00,,---,0.00,VWS V14.01,2013-06-14 07:30:00,
2013-06-14 02:32:00,67.1,48.9,26.49,NW,306,0.0,2.7,52,0.00,,---,0.00,VWS V14.01,2013-06-14 07:32:00,
2013-06-14 02:33:00,67.1,48.9,26.49,NW,306,0.0,0.0,52,0.00,,---,0.00,VWS V14.01,2013-06-14 07:33:00,
2013-06-14 02:35:00,67.1,48.9,26.49,NW,316,2.7,2.7,52,0.00,,---,0.00,VWS V14.01,2013-06-14 07:35:00,
2013-06-14 02:37:00,67.1,48.9,26.49,WNW,293,0.0,0.0,52,0.00,,---,0.00,VWS V14.01,2013-06-14 07:37:00,
2013-06-14 02:38:00,67.1,48.9,26.49,WNW,293,0.0,0.0,52,0.00,,---,0.00,VWS V14.01,2013-06-14 07:38:00,
2013-06-14 02:40:00,67.1,48.9,26.40,North,0,0.0,0.0,52,0.00,,---,0.00,VWS V14.01,2013-06-14 07:40:00,
2013-06-14 02:42:00,67.1,48.9,26.40,North,0,0.0,0.0,52,0.00,,---,0.00,VWS V14.01,2013-06-14 07:42:00,
2013-06-14 02:43:00,67.1,48.9,26.40,North,0,0.0,0.0,52,0.00,,---,0.00,VWS V14.01,2013-06-14 07:43:00,
2013-06-14 02:45:00,66.6,48.9,26.40,NE,43,0.0,0.0,53,0.00,,---,0.00,VWS V14.01,2013-06-14 07:45:00,
2013-06-14 02:47:00,66.6,48.9,26.40,WSW,244,0.0,0.0,53,0.00,,---,0.00,VWS V14.01,2013-06-14 07:47:00,
2013-06-14 02:48:00,66.6,48.9,26.40,WSW,244,0.0,0.0,53,0.00,,---,0.00,VWS V14.01,2013-06-14 07:48:00,
2013-06-14 02:49:00,66.6,48.9,26.40,WSW,244,0.0,0.0,53,0.00,,---,0.00,VWS V14.01,2013-06-14 07:49:00,
2013-06-14 02:50:00,66.4,48.8,26.40,WSW,244,0.0,0.0,53,0.00,,---,0.00,VWS V14.01,2013-06-14 07:50:00,
2013-06-14 02:52:00,66.4,48.8,26.40,NW,318,2.2,2.2,53,0.00,,---,0.00,VWS V14.01,2013-06-14 07:52:00,
2013-06-14 02:53:00,66.4,48.8,26.40,NW,318,2.2,2.2,53,0.00,,---,0.00,VWS V14.01,2013-06-14 07:53:00,
2013-06-14 02:54:00,66.4,48.8,26.40,NW,318,0.0,0.0,53,0.00,,---,0.00,VWS V14.01,2013-06-14 07:54:00,
2013-06-14 02:55:00,66.4,48.8,26.40,NNW,333,0.0,0.0,53,0.00,,---,0.00,VWS V14.01,2013-06-14 07:55:00,
2013-06-14 02:57:00,66.4,48.8,26.40,NNW,333,0.0,0.0,53,0.00,,---,0.00,VWS V14.01,2013-06-14 07:57:00,
2013-06-14 02:58:00,66.4,48.8,26.40,NW,316,0.0,0.0,53,0.00,,---,0.00,VWS V14.01,2013-06-14 07:58:00,
2013-06-14 02:59:00,66.4,48.8,26.40,NW,316,0.0,0.0,53,0.00,,---,0.00,VWS V14.01,2013-06-14 07:59:00,
2013-06-14 03:00:00,66.4,48.8,26.40,North,8,0.0,0.0,53,0.00,,---,0.00,VWS V14.01,2013-06-14 08:00:00,
2013-06-14 03:02:00,66.2,49.1,26.40,NNW,334,3.1,3.1,54,0.00,,---,0.00,VWS V14.01,2013-06-14 08:02:00,
2013-06-14 03:03:00,66.2,49.1,26.40,NW,326,3.6,3.6,54,0.00,,---,0.00,VWS V14.01,2013-06-14 08:03:00,
2013-06-14 03:04:00,66.0,49.4,26.40,NW,326,3.6,3.6,55,0.00,,---,0.00,VWS V14.01,2013-06-14 08:04:00,
2013-06-14 03:05:00,66.0,49.4,26.40,NW,326,3.6,3.6,55,0.00,,---,0.00,VWS V14.01,2013-06-14 08:05:00,
2013-06-14 03:07:00,66.0,49.4,26.40,NNW,334,3.1,3.1,55,0.00,,---,0.00,VWS V14.01,2013-06-14 08:07:00,
2013-06-14 03:08:00,66.0,49.4,26.40,NNW,334,3.1,3.1,55,0.00,,---,0.00,VWS V14.01,2013-06-14 08:08:00,
2013-06-14 03:09:00,66.0,49.4,26.40,NNW,334,3.1,3.1,55,0.00,,---,0.00,VWS V14.01,2013-06-14 08:09:00,
2013-06-14 03:10:00,66.0,49.4,26.40,NNW,340,3.1,3.1,55,0.00,,---,0.00,VWS V14.01,2013-06-14 08:10:00,
2013-06-14 03:13:00,66.0,49.9,26.40,NNW,329,3.6,3.6,56,0.00,,---,0.00,VWS V14.01,2013-06-14 08:13:00,
2013-06-14 03:14:00,66.0,49.9,26.40,NNW,329,3.6,3.6,56,0.00,,---,0.00,VWS V14.01,2013-06-14 08:14:00,
2013-06-14 03:16:00,66.0,49.9,26.40,NW,317,3.1,3.1,56,0.00,,---,0.00,VWS V14.01,2013-06-14 08:16:00,
2013-06-14 03:18:00,66.0,49.9,26.40,NNW,334,3.1,3.1,56,0.00,,---,0.00,VWS V14.01,2013-06-14 08:18:00,
2013-06-14 03:19:00,65.8,49.7,26.40,NNW,334,3.1,3.1,56,0.00,,---,0.00,VWS V14.01,2013-06-14 08:19:00,
2013-06-14 03:20:00,65.8,49.7,26.40,NNW,330,2.7,2.7,56,0.00,,---,0.00,VWS V14.01,2013-06-14 08:20:00,
2013-06-14 03:22:00,65.8,49.7,26.40,NNE,17,3.1,3.1,56,0.00,,---,0.00,VWS V14.01,2013-06-14 08:22:00,
2013-06-14 03:23:00,65.8,49.7,26.40,NNE,17,3.1,3.1,56,0.00,,---,0.00,VWS V14.01,2013-06-14 08:23:00,
2013-06-14 03:24:00,65.8,49.7,26.40,NW,320,4.0,4.0,56,0.00,,---,0.00,VWS V14.01,2013-06-14 08:24:00,
2013-06-14 03:25:00,65.8,49.7,26.40,NW,323,3.6,3.6,56,0.00,,---,0.00,VWS V14.01,2013-06-14 08:25:00,
2013-06-14 03:27:00,65.8,49.7,26.40,North,349,2.2,2.2,56,0.00,,---,0.00,VWS V14.01,2013-06-14 08:27:00,
2013-06-14 03:28:00,65.8,49.7,26.40,NW,312,0.0,0.0,56,0.00,,---,0.00,VWS V14.01,2013-06-14 08:28:00,
2013-06-14 03:29:00,65.8,49.7,26.40,NW,312,0.0,0.0,56,0.00,,---,0.00,VWS V14.01,2013-06-14 08:29:00,
2013-06-14 03:30:00,65.8,49.7,26.40,NW,312,0.0,0.0,56,0.00,,---,0.00,VWS V14.01,2013-06-14 08:30:00,
2013-06-14 03:32:00,65.8,49.7,26.43,NW,311,0.0,2.2,56,0.00,,---,0.00,VWS V14.01,2013-06-14 08:32:00,
2013-06-14 03:33:00,65.8,49.7,26.43,NNW,335,3.1,3.1,56,0.00,,---,0.00,VWS V14.01,2013-06-14 08:33:00,
2013-06-14 03:34:00,65.8,49.7,26.43,NNW,327,0.0,0.0,56,0.00,,---,0.00,VWS V14.01,2013-06-14 08:34:00,
2013-06-14 03:35:00,65.8,49.7,26.43,NNW,327,0.0,0.0,56,0.00,,---,0.00,VWS V14.01,2013-06-14 08:35:00,
2013-06-14 03:37:00,65.7,50.5,26.43,NNW,327,0.0,0.0,58,0.00,,---,0.00,VWS V14.01,2013-06-14 08:37:00,
2013-06-14 03:38:00,65.7,50.5,26.43,NNW,327,0.0,0.0,58,0.00,,---,0.00,VWS V14.01,2013-06-14 08:38:00,
2013-06-14 03:39:00,65.5,50.3,26.43,NNW,327,0.0,0.0,58,0.00,,---,0.00,VWS V14.01,2013-06-14 08:39:00,
2013-06-14 03:40:00,65.5,50.3,26.43,NNW,327,0.0,0.0,58,0.00,,---,0.00,VWS V14.01,2013-06-14 08:40:00,
2013-06-14 03:43:00,65.5,50.3,26.43,NW,311,0.0,0.0,58,0.00,,---,0.00,VWS V14.01,2013-06-14 08:43:00,
2013-06-14 03:44:00,65.5,50.3,26.43,NNW,328,4.0,4.0,58,0.00,,---,0.00,VWS V14.01,2013-06-14 08:44:00,
2013-06-14 03:45:00,65.5,50.3,26.43,NNW,328,4.0,4.0,58,0.00,,---,0.00,VWS V14.01,2013-06-14 08:45:00,
2013-06-14 03:48:00,65.3,50.6,26.43,NNW,344,3.1,3.1,59,0.00,,---,0.00,VWS V14.01,2013-06-14 08:48:00,
2013-06-14 03:49:00,65.3,50.6,26.37,NNW,339,0.0,0.0,59,0.00,,---,0.00,VWS V14.01,2013-06-14 08:49:00,
2013-06-14 03:50:00,65.3,50.6,26.37,NNW,339,0.0,0.0,59,0.00,,---,0.00,VWS V14.01,2013-06-14 08:50:00,
2013-06-14 03:53:00,65.3,50.6,26.37,North,350,2.2,2.2,59,0.00,,---,0.00,VWS V14.01,2013-06-14 08:53:00,
2013-06-14 03:54:00,65.1,50.5,26.37,North,350,2.2,2.2,59,0.00,,---,0.00,VWS V14.01,2013-06-14 08:54:00,
2013-06-14 03:55:00,65.1,50.5,26.40,NW,313,3.6,3.6,59,0.00,,---,0.00,VWS V14.01,2013-06-14 08:55:00,
2013-06-14 03:56:00,64.9,50.3,26.40,NW,313,3.6,3.6,59,0.00,,---,0.00,VWS V14.01,2013-06-14 08:56:00,
2013-06-14 03:58:00,64.9,50.3,26.40,North,353,0.0,2.2,59,0.00,,---,0.00,VWS V14.01,2013-06-14 08:58:00,
2013-06-14 03:59:00,64.9,50.3,26.40,North,353,0.0,0.0,59,0.00,,---,0.00,VWS V14.01,2013-06-14 08:59:00,
2013-06-14 04:00:00,64.9,50.3,26.40,North,353,0.0,0.0,59,0.00,,---,0.00,VWS V14.01,2013-06-14 09:00:00,
2013-06-14 04:01:00,64.9,50.3,26.40,NW,319,0.0,0.0,59,0.00,,---,0.00,VWS V14.01,2013-06-14 09:01:00,
2013-06-14 04:03:00,64.8,50.1,26.40,WNW,294,2.7,2.7,59,0.00,,---,0.00,VWS V14.01,2013-06-14 09:03:00,
2013-06-14 04:04:00,64.8,50.1,26.40,WNW,295,0.0,2.7,59,0.00,,---,0.00,VWS V14.01,2013-06-14 09:04:00,
2013-06-14 04:05:00,64.8,50.1,26.40,WNW,295,0.0,0.0,59,0.00,,---,0.00,VWS V14.01,2013-06-14 09:05:00,
2013-06-14 04:06:00,64.8,49.7,26.40,WNW,295,0.0,0.0,58,0.00,,---,0.00,VWS V14.01,2013-06-14 09:06:00,
2013-06-14 04:08:00,64.8,49.7,26.40,WNW,295,0.0,0.0,58,0.00,,---,0.00,VWS V14.01,2013-06-14 09:08:00,
2013-06-14 04:09:00,64.8,49.7,26.37,WNW,295,0.0,0.0,58,0.00,,---,0.00,VWS V14.01,2013-06-14 09:09:00,
2013-06-14 04:10:00,64.8,49.7,26.37,WNW,295,0.0,0.0,58,0.00,,---,0.00,VWS V14.01,2013-06-14 09:10:00,
2013-06-14 04:11:00,64.8,49.7,26.37,WNW,294,0.0,0.0,58,0.00,,---,0.00,VWS V14.01,2013-06-14 09:11:00,
2013-06-14 04:13:00,64.8,49.7,26.37,WNW,295,0.0,0.0,58,0.00,,---,0.00,VWS V14.01,2013-06-14 09:13:00,
2013-06-14 04:15:00,64.8,49.7,26.37,WNW,295,0.0,0.0,58,0.00,,---,0.00,VWS V14.01,2013-06-14 09:15:00,
2013-06-14 04:16:00,64.8,49.7,26.37,WNW,295,0.0,0.0,58,0.00,,---,0.00,VWS V14.01,2013-06-14 09:16:00,
2013-06-14 04:18:00,64.8,49.7,26.37,WNW,295,0.0,0.0,58,0.00,,---,0.00,VWS V14.01,2013-06-14 09:18:00,
2013-06-14 04:20:00,64.0,49.4,26.37,WNW,295,0.0,0.0,59,0.00,,---,0.00,VWS V14.01,2013-06-14 09:20:00,
2013-06-14 04:21:00,64.0,49.4,26.37,WNW,295,0.0,0.0,59,0.00,,---,0.00,VWS V14.01,2013-06-14 09:21:00,
2013-06-14 04:23:00,64.0,49.4,26.37,WNW,295,0.0,0.0,59,0.00,,---,0.00,VWS V14.01,2013-06-14 09:23:00,
2013-06-14 04:25:00,63.9,49.7,26.37,WNW,295,0.0,0.0,60,0.00,,---,0.00,VWS V14.01,2013-06-14 09:25:00,
2013-06-14 04:26:00,63.9,49.7,26.37,WNW,295,0.0,0.0,60,0.00,,---,0.00,VWS V14.01,2013-06-14 09:26:00,
2013-06-14 04:29:00,63.9,49.7,26.37,WNW,294,0.0,0.0,60,0.00,,---,0.00,VWS V14.01,2013-06-14 09:29:00,
2013-06-14 04:30:00,63.9,49.7,26.37,WNW,294,0.0,0.0,60,0.00,,---,0.00,VWS V14.01,2013-06-14 09:30:00,
2013-06-14 04:31:00,63.7,49.5,26.37,WNW,294,0.0,0.0,60,0.00,,---,0.00,VWS V14.01,2013-06-14 09:31:00,
2013-06-14 04:34:00,63.7,50.0,26.37,WNW,294,0.0,0.0,61,0.00,,---,0.00,VWS V14.01,2013-06-14 09:34:00,
2013-06-14 04:35:00,63.7,50.0,26.43,WNW,294,0.0,0.0,61,0.00,,---,0.00,VWS V14.01,2013-06-14 09:35:00,
2013-06-14 04:36:00,63.7,50.0,26.43,WNW,294,0.0,0.0,61,0.00,,---,0.00,VWS V14.01,2013-06-14 09:36:00,
2013-06-14 04:38:00,63.7,50.0,26.43,WNW,294,0.0,0.0,61,0.00,,---,0.00,VWS V14.01,2013-06-14 09:38:00,
2013-06-14 04:39:00,63.7,50.0,26.37,WNW,294,0.0,0.0,61,0.00,,---,0.00,VWS V14.01,2013-06-14 09:39:00,
2013-06-14 04:40:00,63.3,49.7,26.37,WNW,294,0.0,0.0,61,0.00,,---,0.00,VWS V14.01,2013-06-14 09:40:00,
2013-06-14 04:41:00,63.3,49.7,26.37,WNW,294,0.0,0.0,61,0.00,,---,0.00,VWS V14.01,2013-06-14 09:41:00,
2013-06-14 04:43:00,63.3,50.1,26.37,WNW,294,0.0,0.0,62,0.00,,---,0.00,VWS V14.01,2013-06-14 09:43:00,
2013-06-14 04:44:00,63.1,49.9,26.37,WNW,294,0.0,0.0,62,0.00,,---,0.00,VWS V14.01,2013-06-14 09:44:00,
2013-06-14 04:45:00,63.1,49.9,26.37,WNW,294,0.0,0.0,62,0.00,,---,0.00,VWS V14.01,2013-06-14 09:45:00,
2013-06-14 04:46:00,63.1,49.9,26.37,WNW,294,0.0,0.0,62,0.00,,---,0.00,VWS V14.01,2013-06-14 09:46:00,
2013-06-14 04:48:00,63.1,49.9,26.37,WNW,294,0.0,0.0,62,0.00,,---,0.00,VWS V14.01,2013-06-14 09:48:00,
2013-06-14 04:49:00,63.1,49.9,26.37,WNW,294,0.0,0.0,62,0.00,,---,0.00,VWS V14.01,2013-06-14 09:49:00,
2013-06-14 04:51:00,63.1,49.9,26.37,WNW,294,0.0,0.0,62,0.00,,---,0.00,VWS V14.01,2013-06-14 09:51:00,
2013-06-14 04:52:00,63.1,49.9,26.37,WNW,294,0.0,0.0,62,0.00,,---,0.00,VWS V14.01,2013-06-14 09:52:00,
2013-06-14 04:54:00,63.0,49.8,26.37,WNW,288,0.0,0.0,62,0.00,,---,0.00,VWS V14.01,2013-06-14 09:54:00,
2013-06-14 04:56:00,63.0,49.8,18.75,WNW,288,0.0,0.0,62,0.00,,---,0.00,VWS V14.01,2013-06-14 09:56:00,
2013-06-14 04:57:00,63.0,49.8,18.75,WNW,288,0.0,0.0,62,0.00,,---,0.00,VWS V14.01,2013-06-14 09:57:00,
2013-06-14 04:59:00,63.0,49.8,18.75,NW,312,0.0,0.0,62,0.00,,---,0.00,VWS V14.01,2013-06-14 09:59:00,
2013-06-14 05:01:00,63.0,49.8,18.75,NW,312,0.0,0.0,62,0.00,,---,0.00,VWS V14.01,2013-06-14 10:01:00,
2013-06-14 05:02:00,63.0,49.8,18.75,NW,312,0.0,0.0,62,0.00,,---,0.00,VWS V14.01,2013-06-14 10:02:00,
2013-06-14 05:04:00,63.0,49.8,18.75,NW,310,0.0,0.0,62,0.00,,---,0.00,VWS V14.01,2013-06-14 10:04:00,
2013-06-14 05:06:00,63.0,49.8,18.75,NW,311,2.2,2.2,62,0.00,,---,0.00,VWS V14.01,2013-06-14 10:06:00,
2013-06-14 05:07:00,63.0,49.8,18.75,NNW,335,2.7,2.7,62,0.00,,---,0.00,VWS V14.01,2013-06-14 10:07:00,
2013-06-14 05:09:00,63.0,49.8,26.46,NNW,339,2.7,2.7,62,0.00,,---,0.00,VWS V14.01,2013-06-14 10:09:00,
2013-06-14 05:10:00,63.0,49.8,26.46,NNW,339,2.7,2.7,62,0.00,,---,0.00,VWS V14.01,2013-06-14 10:10:00,
2013-06-14 05:11:00,62.6,49.8,26.46,NW,312,0.0,0.0,63,0.00,,---,0.00,VWS V14.01,2013-06-14 10:11:00,
2013-06-14 05:12:00,62.6,49.8,26.46,NW,312,0.0,0.0,63,0.00,,---,0.00,VWS V14.01,2013-06-14 10:12:00,
2013-06-14 05:14:00,62.6,49.8,26.46,WNW,302,0.0,0.0,63,0.00,,---,0.00,VWS V14.01,2013-06-14 10:14:00,
2013-06-14 05:15:00,62.6,49.8,26.46,WNW,301,2.7,2.7,63,0.00,,---,0.00,VWS V14.01,2013-06-14 10:15:00,
2013-06-14 05:16:00,62.6,49.8,26.46,WNW,301,2.7,2.7,63,0.00,,---,0.00,VWS V14.01,2013-06-14 10:16:00,
2013-06-14 05:17:00,62.6,49.8,26.46,WNW,301,2.7,2.7,63,0.00,,---,0.00,VWS V14.01,2013-06-14 10:17:00,
2013-06-14 05:19:00,62.6,50.3,26.46,NW,320,2.7,4.0,64,0.00,,---,0.00,VWS V14.01,2013-06-14 10:19:00,
2013-06-14 05:20:00,62.6,50.3,26.46,NW,310,3.1,3.1,64,0.00,,---,0.00,VWS V14.01,2013-06-14 10:20:00,
2013-06-14 05:21:00,62.6,50.3,26.46,NW,310,3.1,3.1,64,0.00,,---,0.00,VWS V14.01,2013-06-14 10:21:00,
2013-06-14 05:22:00,62.6,50.3,26.46,NW,310,3.1,3.1,64,0.00,,---,0.00,VWS V14.01,2013-06-14 10:22:00,
2013-06-14 05:23:00,62.6,50.3,26.46,NW,310,3.1,3.1,64,0.00,,---,0.00,VWS V14.01,2013-06-14 10:23:00,
2013-06-14 05:24:00,62.6,50.3,26.46,NW,307,0.0,0.0,64,0.00,,---,0.00,VWS V14.01,2013-06-14 10:24:00,
2013-06-14 05:25:00,62.6,50.3,26.49,NW,307,0.0,0.0,64,0.00,,---,0.00,VWS V14.01,2013-06-14 10:25:00,
2013-06-14 05:26:00,62.4,50.5,26.49,WNW,301,0.0,0.0,65,0.00,,---,0.00,VWS V14.01,2013-06-14 10:26:00,
2013-06-14 05:27:00,62.4,50.5,26.49,WNW,301,0.0,0.0,65,0.00,,---,0.00,VWS V14.01,2013-06-14 10:27:00,
2013-06-14 05:28:00,62.4,50.5,26.49,WNW,301,0.0,0.0,65,0.00,,---,0.00,VWS V14.01,2013-06-14 10:28:00,
2013-06-14 05:29:00,62.4,50.5,26.49,NW,311,2.7,2.7,65,0.00,,---,0.00,VWS V14.01,2013-06-14 10:29:00,
2013-06-14 05:30:00,62.4,50.5,26.49,NW,324,2.2,2.2,65,0.00,,---,0.00,VWS V14.01,2013-06-14 10:30:00,
2013-06-14 05:31:00,62.2,50.3,26.49,NW,324,0.0,0.0,65,0.00,,---,0.00,VWS V14.01,2013-06-14 10:31:00,
2013-06-14 05:32:00,62.2,50.3,26.49,NW,324,0.0,0.0,65,0.00,,---,0.00,VWS V14.01,2013-06-14 10:32:00,
2013-06-14 05:33:00,62.2,50.3,26.49,NW,324,0.0,0.0,65,0.00,,---,0.00,VWS V14.01,2013-06-14 10:33:00,
2013-06-14 05:35:00,62.2,50.3,26.49,NW,324,0.0,0.0,65,0.00,,---,0.00,VWS V14.01,2013-06-14 10:35:00,
2013-06-14 05:36:00,62.2,50.3,26.49,NNW,333,2.7,2.7,65,0.00,,---,0.00,VWS V14.01,2013-06-14 10:36:00,
2013-06-14 05:38:00,62.2,50.3,26.49,NNW,336,2.7,2.7,65,0.00,,---,0.00,VWS V14.01,2013-06-14 10:38:00,
2013-06-14 05:40:00,62.2,50.3,24.45,NNW,329,2.7,3.1,65,0.00,,---,0.00,VWS V14.01,2013-06-14 10:40:00,
2013-06-14 05:42:00,62.2,50.3,24.45,NW,311,3.1,3.1,65,0.00,,---,0.00,VWS V14.01,2013-06-14 10:42:00,
2013-06-14 05:43:00,62.2,50.3,24.45,North,3,3.6,3.6,65,0.00,,---,0.00,VWS V14.01,2013-06-14 10:43:00,
2013-06-14 05:45:00,62.2,50.3,24.45,NNW,337,4.0,4.0,65,0.00,,---,0.00,VWS V14.01,2013-06-14 10:45:00,
2013-06-14 05:47:00,62.2,50.3,24.45,NW,313,4.0,4.0,65,0.00,,---,0.00,VWS V14.01,2013-06-14 10:47:00,
2013-06-14 05:48:00,62.2,50.3,24.45,NW,313,4.0,4.0,65,0.00,,---,0.00,VWS V14.01,2013-06-14 10:48:00,
2013-06-14 05:50:00,62.2,50.3,24.45,NNW,330,3.1,3.1,65,0.00,,---,0.00,VWS V14.01,2013-06-14 10:50:00,
2013-06-14 05:51:00,62.2,50.3,24.45,NNW,330,3.1,3.1,65,0.00,,---,0.00,VWS V14.01,2013-06-14 10:51:00,
2013-06-14 05:52:00,62.2,50.3,24.45,WNW,300,0.0,0.0,65,0.00,,---,0.00,VWS V14.01,2013-06-14 10:52:00,
2013-06-14 05:53:00,62.2,50.3,24.45,NNW,327,2.7,4.0,65,0.00,,---,0.00,VWS V14.01,2013-06-14 10:53:00,
2013-06-14 05:54:00,62.2,50.3,24.45,NW,322,2.7,4.0,65,0.00,,---,0.00,VWS V14.01,2013-06-14 10:54:00,
2013-06-14 05:56:00,62.2,50.3,24.45,NW,322,2.7,2.7,65,0.00,,---,0.00,VWS V14.01,2013-06-14 10:56:00,
2013-06-14 05:57:00,62.6,50.3,24.45,NW,325,2.2,2.2,64,0.00,,---,0.00,VWS V14.01,2013-06-14 10:57:00,
2013-06-14 05:58:00,62.6,50.3,24.45,NW,307,0.0,0.0,64,0.00,,---,0.00,VWS V14.01,2013-06-14 10:58:00,
2013-06-14 05:59:00,62.6,50.3,24.45,NW,307,0.0,0.0,64,0.00,,---,0.00,VWS V14.01,2013-06-14 10:59:00,
2013-06-14 06:01:00,62.6,50.3,24.45,NW,307,0.0,0.0,64,0.00,,---,0.00,VWS V14.01,2013-06-14 11:01:00,
2013-06-14 06:02:00,62.6,50.3,24.45,NW,307,0.0,0.0,64,0.00,,---,0.00,VWS V14.01,2013-06-14 11:02:00,
2013-06-14 06:03:00,62.6,50.3,24.45,NW,307,0.0,0.0,64,0.00,,---,0.00,VWS V14.01,2013-06-14 11:03:00,
2013-06-14 06:04:00,62.6,50.3,24.45,NW,307,0.0,0.0,64,0.00,,---,0.00,VWS V14.01,2013-06-14 11:04:00,
2013-06-14 06:06:00,62.6,50.3,26.37,NW,313,0.0,0.0,64,0.00,,---,0.00,VWS V14.01,2013-06-14 11:06:00,
2013-06-14 06:08:00,62.6,50.3,26.37,NNW,345,0.0,0.0,64,0.00,,---,0.00,VWS V14.01,2013-06-14 11:08:00,
2013-06-14 06:09:00,62.6,50.3,26.37,NNW,345,0.0,0.0,64,0.00,,---,0.00,VWS V14.01,2013-06-14 11:09:00,
2013-06-14 06:11:00,62.8,50.4,18.75,NNW,345,0.0,0.0,64,0.00,,---,0.00,VWS V14.01,2013-06-14 11:11:00,
2013-06-14 06:13:00,62.8,50.8,18.75,WNW,298,2.7,2.7,65,0.00,,---,0.00,VWS V14.01,2013-06-14 11:13:00,
2013-06-14 06:14:00,62.8,50.8,18.75,WNW,298,2.7,2.7,65,0.00,,---,0.00,VWS V14.01,2013-06-14 11:14:00,
2013-06-14 06:16:00,62.8,50.8,18.75,NE,38,0.0,0.0,65,0.00,,---,0.00,VWS V14.01,2013-06-14 11:16:00,
2013-06-14 06:18:00,63.0,51.0,18.75,NW,321,2.2,2.2,65,0.00,,---,0.00,VWS V14.01,2013-06-14 11:18:00,
2013-06-14 06:19:00,63.0,51.0,18.75,West,260,3.1,3.1,65,0.00,,---,0.00,VWS V14.01,2013-06-14 11:19:00,
2013-06-14 06:21:00,63.0,51.0,18.75,West,260,3.1,3.1,65,0.00,,---,0.00,VWS V14.01,2013-06-14 11:21:00,
2013-06-14 06:23:00,63.0,51.0,18.75,WNW,302,0.0,2.2,65,0.00,,---,0.00,VWS V14.01,2013-06-14 11:23:00,
2013-06-14 06:24:00,63.0,51.0,18.75,NW,318,4.0,4.0,65,0.00,,---,0.00,VWS V14.01,2013-06-14 11:24:00,
2013-06-14 06:26:00,63.0,51.0,26.37,NNW,329,3.1,3.1,65,0.00,,---,0.00,VWS V14.01,2013-06-14 11:26:00,
2013-06-14 06:28:00,63.0,51.0,26.37,North,8,0.0,3.1,65,0.00,,---,0.00,VWS V14.01,2013-06-14 11:28:00,
2013-06-14 06:29:00,63.0,51.0,26.37,NNW,331,2.2,2.2,65,0.00,,---,0.00,VWS V14.01,2013-06-14 11:29:00,
2013-06-14 06:30:00,63.0,51.0,26.37,NNW,331,2.2,2.2,65,0.00,,---,0.00,VWS V14.01,2013-06-14 11:30:00,
2013-06-14 06:31:00,63.0,51.0,26.37,West,281,4.0,4.0,65,0.00,,---,0.00,VWS V14.01,2013-06-14 11:31:00,
2013-06-14 06:32:00,63.0,51.0,26.37,West,281,4.0,4.0,65,0.00,,---,0.00,VWS V14.01,2013-06-14 11:32:00,
2013-06-14 06:33:00,63.0,51.0,26.37,NW,308,0.0,2.7,65,0.00,,---,0.00,VWS V14.01,2013-06-14 11:33:00,
2013-06-14 06:34:00,63.0,51.0,26.37,NW,309,0.0,0.0,65,0.00,,---,0.00,VWS V14.01,2013-06-14 11:34:00,
2013-06-14 06:35:00,63.0,51.0,26.37,NW,309,0.0,0.0,65,0.00,,---,0.00,VWS V14.01,2013-06-14 11:35:00,
2013-06-14 06:36:00,63.0,51.0,26.37,NNW,337,3.6,3.6,65,0.00,,---,0.00,VWS V14.01,2013-06-14 11:36:00,
2013-06-14 06:37:00,63.0,51.0,26.37,NNW,337,3.6,3.6,65,0.00,,---,0.00,VWS V14.01,2013-06-14 11:37:00,
2013-06-14 06:38:00,63.0,51.0,26.37,NNE,13,3.6,3.6,65,0.00,,---,0.00,VWS V14.01,2013-06-14 11:38:00,
2013-06-14 06:39:00,63.0,51.0,26.37,NNE,13,3.6,3.6,65,0.00,,---,0.00,VWS V14.01,2013-06-14 11:39:00,
2013-06-14 06:40:00,63.0,51.0,26.37,NNW,344,3.1,3.1,65,0.00,,---,0.00,VWS V14.01,2013-06-14 11:40:00,
2013-06-14 06:42:00,63.5,51.1,26.37,WSW,250,0.0,0.0,64,0.00,,---,0.00,VWS V14.01,2013-06-14 11:42:00,
2013-06-14 06:44:00,63.7,51.3,26.37,ENE,69,0.0,3.1,64,0.00,,---,0.00,VWS V14.01,2013-06-14 11:44:00,
2013-06-14 06:45:00,63.7,51.3,26.52,ENE,69,0.0,0.0,64,0.00,,---,0.00,VWS V14.01,2013-06-14 11:45:00,
2013-06-14 06:47:00,63.7,51.3,26.52,ENE,69,0.0,0.0,64,0.00,,---,0.00,VWS V14.01,2013-06-14 11:47:00,
2013-06-14 06:49:00,63.9,51.5,26.52,ENE,69,0.0,0.0,64,0.00,,---,0.00,VWS V14.01,2013-06-14 11:49:00,
2013-06-14 06:50:00,63.9,51.5,26.52,North,6,2.2,2.2,64,0.00,,---,0.00,VWS V14.01,2013-06-14 11:50:00,
2013-06-14 06:52:00,63.9,51.5,26.52,West,262,2.2,2.2,64,0.00,,---,0.00,VWS V14.01,2013-06-14 11:52:00,
2013-06-14 06:53:00,63.9,51.5,26.52,West,262,2.2,2.2,64,0.00,,---,0.00,VWS V14.01,2013-06-14 11:53:00,
2013-06-14 06:54:00,63.9,51.5,26.52,North,8,0.0,2.2,64,0.00,,---,0.00,VWS V14.01,2013-06-14 11:54:00,
2013-06-14 06:55:00,63.9,51.5,26.52,North,8,0.0,0.0,64,0.00,,---,0.00,VWS V14.01,2013-06-14 11:55:00,
2013-06-14 06:58:00,64.4,51.5,26.52,North,8,0.0,0.0,63,0.00,,---,0.00,VWS V14.01,2013-06-14 11:58:00,
2013-06-14 06:59:00,64.4,51.5,26.49,ENE,57,2.2,2.2,63,0.00,,---,0.00,VWS V14.01,2013-06-14 11:59:00,
2013-06-14 07:00:00,64.4,51.5,26.49,ENE,57,0.0,2.2,63,0.00,,---,0.00,VWS V14.01,2013-06-14 12:00:00,
2013-06-14 07:03:00,64.4,51.5,26.49,WNW,286,0.0,0.0,63,0.00,,---,0.00,VWS V14.01,2013-06-14 12:03:00,
2013-06-14 07:04:00,64.4,51.5,26.49,NW,308,0.0,0.0,63,0.00,,---,0.00,VWS V14.01,2013-06-14 12:04:00,
2013-06-14 07:05:00,65.8,52.0,26.49,NW,308,0.0,0.0,61,0.00,,---,0.00,VWS V14.01,2013-06-14 12:05:00,
2013-06-14 07:08:00,66.0,51.3,26.49,NW,308,0.0,0.0,59,0.00,,---,0.00,VWS V14.01,2013-06-14 12:08:00,
2013-06-14 07:09:00,66.2,51.0,26.49,NW,308,0.0,0.0,58,0.00,,---,0.00,VWS V14.01,2013-06-14 12:09:00,
2013-06-14 07:10:00,66.2,51.0,26.40,West,281,0.0,0.0,58,0.00,,---,0.00,VWS V14.01,2013-06-14 12:10:00,
2013-06-14 07:13:00,66.9,51.2,26.40,ENE,77,2.2,2.2,57,0.00,,---,0.00,VWS V14.01,2013-06-14 12:13:00,
2013-06-14 07:14:00,67.1,51.4,26.40,WNW,293,0.0,2.2,57,0.00,,---,0.00,VWS V14.01,2013-06-14 12:14:00,
2013-06-14 07:16:00,67.1,51.4,26.40,WNW,293,2.2,2.2,57,0.00,,---,0.00,VWS V14.01,2013-06-14 12:16:00,
2013-06-14 07:18:00,67.1,51.4,26.40,North,353,0.0,0.0,57,0.00,,---,0.00,VWS V14.01,2013-06-14 12:18:00,
2013-06-14 07:19:00,67.1,51.4,26.40,WSW,251,0.0,0.0,57,0.00,,---,0.00,VWS V14.01,2013-06-14 12:19:00,
2013-06-14 07:21:00,67.1,51.4,26.40,NNW,345,0.0,0.0,57,0.00,,---,0.00,VWS V14.01,2013-06-14 12:21:00,
2013-06-14 07:23:00,67.1,51.4,26.40,WNW,290,3.6,3.6,57,0.00,,---,0.00,VWS V14.01,2013-06-14 12:23:00,
2013-06-14 07:24:00,67.1,51.4,26.40,WNW,290,3.6,3.6,57,0.00,,---,0.00,VWS V14.01,2013-06-14 12:24:00,
2013-06-14 07:26:00,69.4,50.0,17.72,ENE,64,0.0,3.6,50,0.00,,---,0.00,VWS V14.01,2013-06-14 12:26:00,
2013-06-14 07:28:00,70.0,49.4,17.72,NW,306,0.0,0.0,48,0.00,,---,0.00,VWS V14.01,2013-06-14 12:28:00,
2013-06-14 07:29:00,70.0,49.4,17.72,NW,306,0.0,0.0,48,0.00,,---,0.00,VWS V14.01,2013-06-14 12:29:00,
2013-06-14 07:31:00,70.5,49.3,17.72,North,8,0.0,0.0,47,0.00,,---,0.00,VWS V14.01,2013-06-14 12:31:00,
2013-06-14 07:33:00,70.7,48.3,17.72,WSW,258,2.2,2.2,45,0.00,,---,0.00,VWS V14.01,2013-06-14 12:33:00,
2013-06-14 07:34:00,70.7,48.3,17.72,West,259,2.7,2.7,45,0.00,,---,0.00,VWS V14.01,2013-06-14 12:34:00,
2013-06-14 07:36:00,71.1,48.1,17.72,East,88,2.2,3.1,44,0.00,,---,0.00,VWS V14.01,2013-06-14 12:36:00,
2013-06-14 07:37:00,71.1,48.1,17.72,East,88,2.2,2.2,44,0.00,,---,0.00,VWS V14.01,2013-06-14 12:37:00,
2013-06-14 07:38:00,71.1,48.1,17.72,SW,219,0.0,2.2,44,0.00,,---,0.00,VWS V14.01,2013-06-14 12:38:00,
2013-06-14 07:39:00,71.1,48.1,17.72,North,6,2.2,2.2,44,0.00,,---,0.00,VWS V14.01,2013-06-14 12:39:00,
2013-06-14 07:41:00,71.1,48.1,26.46,NE,45,2.7,2.7,44,0.00,,---,0.00,VWS V14.01,2013-06-14 12:41:00,
2013-06-14 07:42:00,71.1,48.1,26.46,NE,45,2.7,2.7,44,0.00,,---,0.00,VWS V14.01,2013-06-14 12:42:00,
2013-06-14 07:44:00,72.0,47.0,26.46,East,89,2.7,2.7,41,0.00,,---,0.00,VWS V14.01,2013-06-14 12:44:00,
2013-06-14 07:46:00,72.1,45.8,26.46,ENE,63,2.2,2.7,39,0.00,,---,0.00,VWS V14.01,2013-06-14 12:46:00,
2013-06-14 07:47:00,72.1,45.8,26.46,ENE,63,2.2,2.7,39,0.00,,---,0.00,VWS V14.01,2013-06-14 12:47:00,
2013-06-14 07:49:00,72.1,45.8,26.46,West,280,2.2,2.2,39,0.00,,---,0.00,VWS V14.01,2013-06-14 12:49:00,
2013-06-14 07:51:00,72.7,46.3,26.46,ESE,110,2.2,2.2,39,0.00,,---,0.00,VWS V14.01,2013-06-14 12:51:00,
2013-06-14 07:52:00,72.7,46.3,26.46,ESE,110,2.2,2.2,39,0.00,,---,0.00,VWS V14.01,2013-06-14 12:52:00,
2013-06-14 07:54:00,72.7,46.3,26.46,ENE,66,4.0,4.0,39,0.00,,---,0.00,VWS V14.01,2013-06-14 12:54:00,
2013-06-14 07:57:00,73.4,45.6,26.46,West,271,3.1,3.1,37,0.00,,---,0.00,VWS V14.01,2013-06-14 12:57:00,
2013-06-14 07:59:00,73.6,45.7,26.52,West,271,3.1,3.1,37,0.00,,---,0.00,VWS V14.01,2013-06-14 12:59:00,
2013-06-14 08:00:00,73.6,45.7,26.52,West,271,3.1,3.1,37,0.00,,---,0.00,VWS V14.01,2013-06-14 13:00:00,
2013-06-14 08:02:00,73.6,45.7,26.52,South,173,0.0,3.6,37,0.00,,---,0.00,VWS V14.01,2013-06-14 13:02:00,
2013-06-14 08:04:00,73.6,45.7,26.52,South,189,3.1,3.1,37,0.00,,---,0.00,VWS V14.01,2013-06-14 13:04:00,
2013-06-14 08:05:00,73.6,45.7,26.52,NNE,18,4.0,4.0,37,0.00,,---,0.00,VWS V14.01,2013-06-14 13:05:00,
2013-06-14 08:07:00,73.6,45.7,26.52,NNW,344,4.0,4.0,37,0.00,,---,0.00,VWS V14.01,2013-06-14 13:07:00,
2013-06-14 08:09:00,74.5,45.8,26.52,NNW,344,4.0,4.0,36,0.00,,---,0.00,VWS V14.01,2013-06-14 13:09:00,
2013-06-14 08:10:00,74.5,45.8,26.52,NNW,344,4.0,4.0,36,0.00,,---,0.00,VWS V14.01,2013-06-14 13:10:00,
2013-06-14 08:12:00,74.5,45.8,26.52,North,353,0.0,3.1,36,0.00,,---,0.00,VWS V14.01,2013-06-14 13:12:00,
2013-06-14 08:14:00,74.8,44.6,26.46,ENE,60,3.1,3.1,34,0.00,,---,0.00,VWS V14.01,2013-06-14 13:14:00,
2013-06-14 08:15:00,74.8,44.6,26.46,ENE,60,3.1,3.1,34,0.00,,---,0.00,VWS V14.01,2013-06-14 13:15:00,
2013-06-14 08:17:00,75.4,46.6,26.46,SW,217,0.0,0.0,36,0.00,,---,0.00,VWS V14.01,2013-06-14 13:17:00,
2013-06-14 08:19:00,75.4,45.9,26.46,SW,225,0.0,0.0,35,0.00,,---,0.00,VWS V14.01,2013-06-14 13:19:00,
2013-06-14 08:20:00,75.4,45.9,26.46,SW,225,0.0,0.0,35,0.00,,---,0.00,VWS V14.01,2013-06-14 13:20:00,
2013-06-14 08:22:00,75.4,45.9,26.46,NNE,28,2.2,2.2,35,0.00,,---,0.00,VWS V14.01,2013-06-14 13:22:00,
2013-06-14 08:23:00,75.4,45.9,26.46,NNE,27,2.2,2.2,35,0.00,,---,0.00,VWS V14.01,2013-06-14 13:23:00,
2013-06-14 08:24:00,75.4,45.9,26.31,NNW,338,4.0,4.0,35,0.00,,---,0.00,VWS V14.01,2013-06-14 13:24:00,
2013-06-14 08:25:00,75.4,45.9,26.31,NNW,338,4.0,4.0,35,0.00,,---,0.00,VWS V14.01,2013-06-14 13:25:00,
2013-06-14 08:28:00,75.9,44.0,26.31,ENE,61,4.0,4.0,32,0.00,,---,0.00,VWS V14.01,2013-06-14 13:28:00,
2013-06-14 08:30:00,76.1,44.9,26.31,ENE,61,4.0,4.0,33,0.00,,---,0.00,VWS V14.01,2013-06-14 13:30:00,
2013-06-14 08:33:00,76.1,44.9,26.31,SSW,196,2.7,2.7,33,0.00,,---,0.00,VWS V14.01,2013-06-14 13:33:00,
2013-06-14 08:35:00,76.5,43.6,26.31,NNE,16,2.7,5.4,31,0.00,,---,0.00,VWS V14.01,2013-06-14 13:35:00,
2013-06-14 08:38:00,76.5,43.6,26.40,NNE,23,6.3,6.3,31,0.00,,---,0.00,VWS V14.01,2013-06-14 13:38:00,
2013-06-14 08:39:00,76.5,43.6,26.40,NNE,23,6.3,6.3,31,0.00,,---,0.00,VWS V14.01,2013-06-14 13:39:00,
2013-06-14 08:40:00,76.5,43.6,26.40,NE,42,3.6,3.6,31,0.00,,---,0.00,VWS V14.01,2013-06-14 13:40:00,
2013-06-14 08:44:00,76.8,43.9,26.40,NNE,22,4.0,4.0,31,0.00,,---,0.00,VWS V14.01,2013-06-14 13:44:00,
2013-06-14 08:45:00,76.8,45.6,26.40,NNE,28,2.7,2.7,33,0.00,,---,0.00,VWS V14.01,2013-06-14 13:45:00,
2013-06-14 08:46:00,77.0,46.5,26.40,NNE,28,2.7,2.7,34,0.00,,---,0.00,VWS V14.01,2013-06-14 13:46:00,
2013-06-14 08:49:00,77.0,46.5,26.40,North,353,5.4,5.4,34,0.00,,---,0.00,VWS V14.01,2013-06-14 13:49:00,
2013-06-14 08:50:00,77.0,46.5,26.40,NNW,337,3.6,5.4,34,0.00,,---,0.00,VWS V14.01,2013-06-14 13:50:00,
2013-06-14 08:51:00,77.0,46.5,26.40,NNW,337,3.6,3.6,34,0.00,,---,0.00,VWS V14.01,2013-06-14 13:51:00,
2013-06-14 08:54:00,77.9,46.5,26.40,NNE,21,0.0,0.0,33,0.00,,---,0.00,VWS V14.01,2013-06-14 13:54:00,
2013-06-14 08:55:00,78.4,46.2,26.40,NW,325,3.1,3.1,32,0.00,,---,0.00,VWS V14.01,2013-06-14 13:55:00,
2013-06-14 08:56:00,78.4,46.2,20.70,North,10,2.7,3.1,32,0.00,,---,0.00,VWS V14.01,2013-06-14 13:56:00,
2013-06-14 08:59:00,78.4,46.2,20.70,NNE,22,3.1,5.4,32,0.00,,---,0.00,VWS V14.01,2013-06-14 13:59:00,
2013-06-14 09:00:00,78.4,46.2,20.70,West,260,2.7,3.1,32,0.00,,---,0.00,VWS V14.01,2013-06-14 14:00:00,
2013-06-14 09:01:00,78.4,46.2,20.70,NNE,15,3.1,3.1,32,0.00,,---,0.00,VWS V14.01,2013-06-14 14:01:00,
2013-06-14 09:04:00,79.3,45.2,20.70,NNE,13,3.1,3.1,30,0.00,,---,0.00,VWS V14.01,2013-06-14 14:04:00,
2013-06-14 09:05:00,79.5,47.1,20.70,NNE,13,3.1,3.1,32,0.00,,---,0.00,VWS V14.01,2013-06-14 14:05:00,
2013-06-14 09:06:00,79.5,46.3,20.70,NNE,13,3.1,3.1,31,0.00,,---,0.00,VWS V14.01,2013-06-14 14:06:00,
2013-06-14 09:09:00,79.7,46.4,20.70,NE,40,2.2,3.6,31,0.00,,---,0.00,VWS V14.01,2013-06-14 14:09:00,
2013-06-14 09:10:00,79.7,46.4,20.70,NW,306,2.7,2.7,31,0.00,,---,0.00,VWS V14.01,2013-06-14 14:10:00,
2013-06-14 09:11:00,79.7,46.4,20.70,NW,306,2.7,2.7,31,0.00,,---,0.00,VWS V14.01,2013-06-14 14:11:00,
2013-06-14 09:14:00,79.7,46.4,20.70,North,349,2.7,2.7,31,0.00,,---,0.00,VWS V14.01,2013-06-14 14:14:00,
2013-06-14 09:15:00,79.7,46.4,20.70,West,266,4.0,4.0,31,0.00,,---,0.00,VWS V14.01,2013-06-14 14:15:00,
2013-06-14 09:16:00,79.7,46.4,20.70,West,266,4.0,4.0,31,0.00,,---,0.00,VWS V14.01,2013-06-14 14:16:00,
2013-06-14 09:19:00,80.6,43.6,20.70,West,274,3.6,3.6,27,0.00,,---,0.00,VWS V14.01,2013-06-14 14:19:00,
2013-06-14 09:20:00,80.6,43.6,26.40,NNW,335,2.7,2.7,27,0.00,,---,0.00,VWS V14.01,2013-06-14 14:20:00,
2013-06-14 09:21:00,80.8,43.7,26.40,NNE,15,2.7,2.7,27,0.00,,---,0.00,VWS V14.01,2013-06-14 14:21:00,
2013-06-14 09:24:00,80.8,43.7,26.43,WNW,301,3.6,4.0,27,0.00,,---,0.00,VWS V14.01,2013-06-14 14:24:00,
2013-06-14 09:26:00,80.8,43.7,26.43,West,272,0.0,0.0,27,0.00,,---,0.00,VWS V14.01,2013-06-14 14:26:00,
2013-06-14 09:29:00,81.5,42.3,26.43,West,272,0.0,0.0,25,0.00,,---,0.00,VWS V14.01,2013-06-14 14:29:00,
2013-06-14 09:31:00,81.7,47.3,26.43,South,170,0.0,2.2,30,0.00,,---,0.00,VWS V14.01,2013-06-14 14:31:00,
2013-06-14 09:32:00,81.7,46.4,26.43,South,170,0.0,0.0,29,0.00,,---,0.00,VWS V14.01,2013-06-14 14:32:00,
2013-06-14 09:34:00,81.7,44.5,26.43,NE,40,2.2,2.7,27,0.00,,---,0.00,VWS V14.01,2013-06-14 14:34:00,
2013-06-14 09:36:00,81.7,44.5,26.43,NNE,31,4.9,4.9,27,0.00,,---,0.00,VWS V14.01,2013-06-14 14:36:00,
2013-06-14 09:37:00,81.7,44.5,26.43,NNE,16,2.2,4.9,27,0.00,,---,0.00,VWS V14.01,2013-06-14 14:37:00,
2013-06-14 09:39:00,81.7,44.5,26.43,NNE,22,3.1,3.1,27,0.00,,---,0.00,VWS V14.01,2013-06-14 14:39:00,
2013-06-14 09:41:00,81.7,44.5,26.43,NNW,335,3.1,3.1,27,0.00,,---,0.00,VWS V14.01,2013-06-14 14:41:00,
2013-06-14 09:42:00,81.7,44.5,26.43,NNE,25,3.1,3.1,27,0.00,,---,0.00,VWS V14.01,2013-06-14 14:42:00,
2013-06-14 09:44:00,81.7,44.5,26.43,East,87,2.2,2.2,27,0.00,,---,0.00,VWS V14.01,2013-06-14 14:44:00,
2013-06-14 09:46:00,81.7,44.5,26.43,NNE,19,4.0,4.0,27,0.00,,---,0.00,VWS V14.01,2013-06-14 14:46:00,
2013-06-14 09:47:00,82.2,40.8,26.43,NNE,19,4.0,4.0,23,0.00,,---,0.00,VWS V14.01,2013-06-14 14:47:00,
2013-06-14 09:49:00,82.2,40.8,26.43,SSW,201,0.0,3.6,23,0.00,,---,0.00,VWS V14.01,2013-06-14 14:49:00,
2013-06-14 09:51:00,82.2,41.9,26.43,NE,40,5.4,5.4,24,0.00,,---,0.00,VWS V14.01,2013-06-14 14:51:00,
2013-06-14 09:52:00,82.2,39.6,26.43,WNW,302,3.1,5.4,22,0.00,,---,0.00,VWS V14.01,2013-06-14 14:52:00,
2013-06-14 09:54:00,82.2,39.6,26.43,WNW,302,3.1,3.1,22,0.00,,---,0.00,VWS V14.01,2013-06-14 14:54:00,
2013-06-14 09:57:00,82.6,39.9,26.43,WNW,302,3.1,3.1,22,0.00,,---,0.00,VWS V14.01,2013-06-14 14:57:00,
2013-06-14 09:59:00,82.6,39.9,26.43,NE,34,4.9,4.9,22,0.00,,---,0.00,VWS V14.01,2013-06-14 14:59:00,
2013-06-14 10:02:00,82.6,39.9,26.43,NW,317,4.0,4.0,22,0.00,,---,0.00,VWS V14.01,2013-06-14 15:02:00,
2013-06-14 10:04:00,82.6,39.9,26.40,ENE,62,2.2,2.2,22,0.00,,---,0.00,VWS V14.01,2013-06-14 15:04:00,
2013-06-14 10:07:00,83.1,41.5,26.40,ENE,75,2.7,2.7,23,0.00,,---,0.00,VWS V14.01,2013-06-14 15:07:00,
2013-06-14 10:09:00,83.1,41.5,26.43,NNE,17,0.0,0.0,23,0.00,,---,0.00,VWS V14.01,2013-06-14 15:09:00,
2013-06-14 10:12:00,83.5,39.5,26.43,NE,34,8.7,8.7,21,0.00,,---,0.00,VWS V14.01,2013-06-14 15:12:00,
2013-06-14 10:14:00,83.5,39.5,26.43,North,357,3.6,3.6,21,0.00,,---,0.00,VWS V14.01,2013-06-14 15:14:00,
2013-06-14 10:17:00,83.5,39.5,26.43,North,353,4.0,4.0,21,0.00,,---,0.00,VWS V14.01,2013-06-14 15:17:00,
2013-06-14 10:18:00,83.5,39.5,26.43,North,353,4.0,4.0,21,0.00,,---,0.00,VWS V14.01,2013-06-14 15:18:00,
2013-06-14 10:19:00,83.5,39.5,26.43,West,276,2.7,2.7,21,0.00,,---,0.00,VWS V14.01,2013-06-14 15:19:00,
2013-06-14 10:22:00,84.0,39.9,26.43,West,276,2.7,2.7,21,0.00,,---,0.00,VWS V14.01,2013-06-14 15:22:00,
2013-06-14 10:23:00,84.0,39.9,26.43,NNW,346,4.0,4.0,21,0.00,,---,0.00,VWS V14.01,2013-06-14 15:23:00,
2013-06-14 10:25:00,83.8,39.8,26.43,WSW,238,3.6,3.6,21,0.00,,---,0.00,VWS V14.01,2013-06-14 15:25:00,
2013-06-14 10:27:00,83.8,39.8,26.43,NE,34,0.0,0.0,21,0.00,,---,0.00,VWS V14.01,2013-06-14 15:27:00,
2013-06-14 10:28:00,83.8,39.8,26.43,NE,34,0.0,0.0,21,0.00,,---,0.00,VWS V14.01,2013-06-14 15:28:00,
2013-06-14 10:30:00,83.8,39.8,26.43,North,2,2.2,2.7,21,0.00,,---,0.00,VWS V14.01,2013-06-14 15:30:00,
2013-06-14 10:32:00,83.8,39.8,26.43,NNE,24,2.7,2.7,21,0.00,,---,0.00,VWS V14.01,2013-06-14 15:32:00,
2013-06-14 10:33:00,83.8,39.8,26.43,NNE,24,2.7,2.7,21,0.00,,---,0.00,VWS V14.01,2013-06-14 15:33:00,
2013-06-14 10:35:00,83.8,39.8,26.43,SSW,208,3.1,3.1,21,0.00,,---,0.00,VWS V14.01,2013-06-14 15:35:00,
2013-06-14 10:37:00,84.0,39.9,26.43,WNW,299,3.1,3.6,21,0.00,,---,0.00,VWS V14.01,2013-06-14 15:37:00,
2013-06-14 10:38:00,84.0,39.9,26.43,WNW,299,3.1,3.6,21,0.00,,---,0.00,VWS V14.01,2013-06-14 15:38:00,
2013-06-14 10:40:00,84.0,39.9,26.43,SSW,209,3.1,3.1,21,0.00,,---,0.00,VWS V14.01,2013-06-14 15:40:00,
2013-06-14 10:43:00,84.6,40.4,26.43,NNW,332,2.7,3.1,21,0.00,,---,0.00,VWS V14.01,2013-06-14 15:43:00,
2013-06-14 10:44:00,84.6,40.4,26.43,NNE,19,2.7,2.7,21,0.00,,---,0.00,VWS V14.01,2013-06-14 15:44:00,
2013-06-14 10:45:00,84.6,40.4,26.43,North,7,4.9,4.9,21,0.00,,---,0.00,VWS V14.01,2013-06-14 15:45:00,
2013-06-14 10:48:00,84.7,38.0,26.43,NNE,32,3.1,5.4,19,0.00,,---,0.00,VWS V14.01,2013-06-14 15:48:00,
2013-06-14 10:49:00,84.7,38.0,26.43,NNE,32,3.1,3.1,19,0.00,,---,0.00,VWS V14.01,2013-06-14 15:49:00,
2013-06-14 10:51:00,84.7,39.3,26.43,North,357,2.2,2.2,20,0.00,,---,0.00,VWS V14.01,2013-06-14 15:51:00,
2013-06-14 10:53:00,84.7,39.3,26.43,WNW,283,2.2,2.2,20,0.00,,---,0.00,VWS V14.01,2013-06-14 15:53:00,
2013-06-14 10:54:00,84.7,39.3,26.52,WNW,282,0.0,2.2,20,0.00,,---,0.00,VWS V14.01,2013-06-14 15:54:00,
2013-06-14 10:56:00,84.9,39.4,26.52,WSW,242,3.1,3.1,20,0.00,,---,0.00,VWS V14.01,2013-06-14 15:56:00,
2013-06-14 10:58:00,84.9,39.4,26.52,NW,325,3.1,5.8,20,0.00,,---,0.00,VWS V14.01,2013-06-14 15:58:00,
2013-06-14 10:59:00,84.9,38.1,26.52,NNE,16,3.6,3.6,19,0.00,,---,0.00,VWS V14.01,2013-06-14 15:59:00,
2013-06-14 11:01:00,85.1,39.6,26.52,WSW,240,2.2,3.6,20,0.00,,---,0.00,VWS V14.01,2013-06-14 16:01:00,
2013-06-14 11:03:00,85.1,38.2,26.52,North,357,3.6,3.6,19,0.00,,---,0.00,VWS V14.01,2013-06-14 16:03:00,
2013-06-14 11:04:00,85.1,38.2,26.52,NNW,337,5.4,5.4,19,0.00,,---,0.00,VWS V14.01,2013-06-14 16:04:00,
2013-06-14 11:06:00,85.1,38.2,26.52,NW,314,2.7,2.7,19,0.00,,---,0.00,VWS V14.01,2013-06-14 16:06:00,
2013-06-14 11:08:00,84.9,39.4,26.52,NE,45,2.7,3.1,20,0.00,,---,0.00,VWS V14.01,2013-06-14 16:08:00,
2013-06-14 11:09:00,85.1,39.6,26.52,WSW,243,0.0,0.0,20,0.00,,---,0.00,VWS V14.01,2013-06-14 16:09:00,
2013-06-14 11:11:00,85.3,41.0,26.52,North,11,3.6,3.6,21,0.00,,---,0.00,VWS V14.01,2013-06-14 16:11:00,
2013-06-14 11:13:00,85.3,39.7,26.46,SSW,199,2.2,2.7,20,0.00,,---,0.00,VWS V14.01,2013-06-14 16:13:00,
2013-06-14 11:14:00,85.3,39.7,26.46,SSW,199,2.2,2.2,20,0.00,,---,0.00,VWS V14.01,2013-06-14 16:14:00,
2013-06-14 11:15:00,85.3,39.7,26.46,WNW,291,7.6,7.6,20,0.00,,---,0.00,VWS V14.01,2013-06-14 16:15:00,
2013-06-14 11:16:00,85.1,39.6,26.46,NNE,22,6.3,6.3,20,0.00,,---,0.00,VWS V14.01,2013-06-14 16:16:00,
2013-06-14 11:18:00,85.3,39.7,26.46,NNW,332,3.1,3.1,20,0.00,,---,0.00,VWS V14.01,2013-06-14 16:18:00,
2013-06-14 11:19:00,85.3,39.7,26.46,East,83,4.0,4.0,20,0.00,,---,0.00,VWS V14.01,2013-06-14 16:19:00,
2013-06-14 11:20:00,85.3,39.7,26.46,East,83,4.0,4.0,20,0.00,,---,0.00,VWS V14.01,2013-06-14 16:20:00,
2013-06-14 11:22:00,85.1,39.6,26.46,WNW,302,3.1,3.1,20,0.00,,---,0.00,VWS V14.01,2013-06-14 16:22:00,
2013-06-14 11:24:00,85.1,38.2,26.46,North,9,3.6,4.0,19,0.00,,---,0.00,VWS V14.01,2013-06-14 16:24:00,
2013-06-14 11:25:00,85.1,39.6,26.46,NE,54,6.3,6.3,20,0.00,,---,0.00,VWS V14.01,2013-06-14 16:25:00,
2013-06-14 11:27:00,85.1,39.6,26.43,ENE,70,3.6,3.6,20,0.00,,---,0.00,VWS V14.01,2013-06-14 16:27:00,
2013-06-14 11:29:00,85.3,41.0,26.43,NE,55,3.6,3.6,21,0.00,,---,0.00,VWS V14.01,2013-06-14 16:29:00,
2013-06-14 11:30:00,85.1,39.6,26.43,NW,319,3.1,5.4,20,0.00,,---,0.00,VWS V14.01,2013-06-14 16:30:00,
2013-06-14 11:32:00,85.3,41.0,26.43,NW,315,6.3,6.3,21,0.00,,---,0.00,VWS V14.01,2013-06-14 16:32:00,
2013-06-14 11:34:00,85.1,38.2,26.43,NNE,19,3.6,10.1,19,0.00,,---,0.00,VWS V14.01,2013-06-14 16:34:00,
2013-06-14 11:35:00,85.1,38.2,26.43,WNW,300,4.0,4.0,19,0.00,,---,0.00,VWS V14.01,2013-06-14 16:35:00,
2013-06-14 11:37:00,85.1,39.6,26.43,NE,56,2.7,3.1,20,0.00,,---,0.00,VWS V14.01,2013-06-14 16:37:00,
2013-06-14 11:39:00,85.1,39.6,26.46,ENE,64,2.7,2.7,20,0.00,,---,0.00,VWS V14.01,2013-06-14 16:39:00,
2013-06-14 11:40:00,85.1,39.6,26.46,WSW,240,2.7,2.7,20,0.00,,---,0.00,VWS V14.01,2013-06-14 16:40:00,
2013-06-14 11:42:00,85.3,39.7,26.46,NE,53,2.7,2.7,20,0.00,,---,0.00,VWS V14.01,2013-06-14 16:42:00,
2013-06-14 11:44:00,85.5,39.9,26.46,NE,45,4.0,4.0,20,0.00,,---,0.00,VWS V14.01,2013-06-14 16:44:00,
2013-06-14 11:45:00,85.5,39.9,26.46,WNW,295,2.7,4.0,20,0.00,,---,0.00,VWS V14.01,2013-06-14 16:45:00,
2013-06-14 11:47:00,85.6,38.7,26.46,NNW,329,3.1,3.1,19,0.00,,---,0.00,VWS V14.01,2013-06-14 16:47:00,
2013-06-14 11:49:00,85.8,38.8,26.46,North,353,6.7,6.7,19,0.00,,---,0.00,VWS V14.01,2013-06-14 16:49:00,
2013-06-14 11:50:00,85.8,38.8,26.46,SSW,196,3.6,6.7,19,0.00,,---,0.00,VWS V14.01,2013-06-14 16:50:00,
2013-06-14 11:52:00,85.8,38.8,26.46,WNW,300,8.7,8.7,19,0.00,,---,0.00,VWS V14.01,2013-06-14 16:52:00,
2013-06-14 11:54:00,85.8,40.2,26.46,NE,55,3.6,3.6,20,0.00,,---,0.00,VWS V14.01,2013-06-14 16:54:00,
2013-06-14 11:55:00,85.8,40.2,26.46,NE,55,3.6,3.6,20,0.00,,---,0.00,VWS V14.01,2013-06-14 16:55:00,
2013-06-14 11:56:00,85.8,40.2,26.46,NE,48,2.7,4.0,20,0.00,,---,0.00,VWS V14.01,2013-06-14 16:56:00,
2013-06-14 11:57:00,85.8,40.2,26.46,NNW,327,5.4,5.4,20,0.00,,---,0.00,VWS V14.01,2013-06-14 16:57:00,
2013-06-14 11:59:00,85.8,38.8,17.72,NE,55,2.2,2.2,19,0.00,,---,0.00,VWS V14.01,2013-06-14 16:59:00,
2013-06-14 12:00:00,85.8,38.8,17.72,NE,55,2.2,2.2,19,0.00,,---,0.00,VWS V14.01,2013-06-14 17:00:00,
2013-06-14 12:01:00,85.8,38.8,17.72,WSW,237,4.0,4.0,19,0.00,,---,0.00,VWS V14.01,2013-06-14 17:01:00,
2013-06-14 12:02:00,85.6,38.7,17.72,North,0,2.7,2.7,19,0.00,,---,0.00,VWS V14.01,2013-06-14 17:02:00,
2013-06-14 12:05:00,85.8,38.8,17.72,West,273,3.1,3.1,19,0.00,,---,0.00,VWS V14.01,2013-06-14 17:05:00,
2013-06-14 12:06:00,85.6,38.7,17.72,SE,135,5.4,5.4,19,0.00,,---,0.00,VWS V14.01,2013-06-14 17:06:00,
2013-06-14 12:07:00,85.8,38.8,17.72,NW,320,8.7,8.7,19,0.00,,---,0.00,VWS V14.01,2013-06-14 17:07:00,
2013-06-14 12:10:00,85.8,38.8,26.52,NNE,26,5.4,5.4,19,0.00,,---,0.00,VWS V14.01,2013-06-14 17:10:00,
2013-06-14 12:11:00,85.8,38.8,26.52,NNE,23,3.1,5.4,19,0.00,,---,0.00,VWS V14.01,2013-06-14 17:11:00,
2013-06-14 12:12:00,85.8,38.8,26.52,NE,36,2.7,2.7,19,0.00,,---,0.00,VWS V14.01,2013-06-14 17:12:00,
2013-06-14 12:15:00,85.5,37.2,26.52,NNE,26,4.0,4.0,18,0.00,,---,0.00,VWS V14.01,2013-06-14 17:15:00,
2013-06-14 12:16:00,85.5,37.2,26.52,NNE,26,4.0,4.0,18,0.00,,---,0.00,VWS V14.01,2013-06-14 17:16:00,
2013-06-14 12:18:00,85.6,38.7,26.52,NNW,336,3.6,3.6,19,0.00,,---,0.00,VWS V14.01,2013-06-14 17:18:00,
2013-06-14 12:20:00,85.8,40.2,26.52,NNE,18,0.0,0.0,20,0.00,,---,0.00,VWS V14.01,2013-06-14 17:20:00,
2013-06-14 12:21:00,85.8,40.2,26.52,NNE,18,0.0,0.0,20,0.00,,---,0.00,VWS V14.01,2013-06-14 17:21:00,
2013-06-14 12:23:00,85.8,38.8,26.52,NNE,32,3.6,3.6,19,0.00,,---,0.00,VWS V14.01,2013-06-14 17:23:00,
2013-06-14 12:25:00,85.8,38.8,26.52,NE,46,2.2,3.6,19,0.00,,---,0.00,VWS V14.01,2013-06-14 17:25:00,
2013-06-14 12:26:00,85.8,38.8,26.52,North,349,3.6,3.6,19,0.00,,---,0.00,VWS V14.01,2013-06-14 17:26:00,
2013-06-14 12:28:00,85.8,38.8,18.63,North,6,4.9,4.9,19,0.00,,---,0.00,VWS V14.01,2013-06-14 17:28:00,
2013-06-14 12:30:00,85.6,37.3,18.63,West,278,6.3,6.3,18,0.00,,---,0.00,VWS V14.01,2013-06-14 17:30:00,
2013-06-14 12:31:00,85.6,37.3,18.63,NW,324,4.9,6.3,18,0.00,,---,0.00,VWS V14.01,2013-06-14 17:31:00,
2013-06-14 12:32:00,85.5,37.2,18.63,ENE,69,0.0,0.0,18,0.00,,---,0.00,VWS V14.01,2013-06-14 17:32:00,
2013-06-14 12:33:00,85.3,38.4,18.63,NNE,29,2.7,8.7,19,0.00,,---,0.00,VWS V14.01,2013-06-14 17:33:00,
2013-06-14 12:35:00,85.3,37.0,18.63,NNE,19,5.4,5.4,18,0.00,,---,0.00,VWS V14.01,2013-06-14 17:35:00,
2013-06-14 12:36:00,85.3,38.4,18.63,NE,46,4.0,5.4,19,0.00,,---,0.00,VWS V14.01,2013-06-14 17:36:00,
2013-06-14 12:37:00,85.3,38.4,18.63,WNW,303,2.7,4.0,19,0.00,,---,0.00,VWS V14.01,2013-06-14 17:37:00,
2013-06-14 12:38:00,85.3,38.4,18.63,WSW,257,2.2,2.2,19,0.00,,---,0.00,VWS V14.01,2013-06-14 17:38:00,
2013-06-14 12:40:00,85.5,38.5,18.63,NNE,29,3.1,3.1,19,0.00,,---,0.00,VWS V14.01,2013-06-14 17:40:00,
2013-06-14 12:42:00,85.5,38.5,18.63,NNE,29,3.1,3.1,19,0.00,,---,0.00,VWS V14.01,2013-06-14 17:42:00,
2013-06-14 12:43:00,85.3,38.4,18.81,ENE,77,3.6,3.6,19,0.00,,---,0.00,VWS V14.01,2013-06-14 17:43:00,
2013-06-14 12:45:00,85.3,37.0,18.81,East,99,0.0,0.0,18,0.00,,---,0.00,VWS V14.01,2013-06-14 17:45:00,
2013-06-14 12:47:00,85.5,37.2,18.81,North,6,6.3,6.3,18,0.00,,---,0.00,VWS V14.01,2013-06-14 17:47:00,
2013-06-14 12:49:00,85.5,37.2,18.81,SE,139,5.4,5.4,18,0.00,,---,0.00,VWS V14.01,2013-06-14 17:49:00,
2013-06-14 12:51:00,85.5,37.2,18.81,NW,310,3.6,3.6,18,0.00,,---,0.00,VWS V14.01,2013-06-14 17:51:00,
2013-06-14 12:52:00,85.5,37.2,18.81,West,267,0.0,3.6,18,0.00,,---,0.00,VWS V14.01,2013-06-14 17:52:00,
2013-06-14 12:54:00,85.6,37.3,18.81,NE,44,4.9,4.9,18,0.00,,---,0.00,VWS V14.01,2013-06-14 17:54:00,
2013-06-14 12:56:00,85.6,38.7,26.37,SSW,208,3.6,3.6,19,0.00,,---,0.00,VWS V14.01,2013-06-14 17:56:00,
2013-06-14 12:57:00,85.6,38.7,26.37,NNW,331,5.4,5.4,19,0.00,,---,0.00,VWS V14.01,2013-06-14 17:57:00,
2013-06-14 12:59:00,85.6,38.7,26.37,NNW,336,3.1,7.2,19,0.00,,---,0.00,VWS V14.01,2013-06-14 17:59:00,
2013-06-14 13:01:00,85.6,38.7,26.37,ESE,116,3.1,3.1,19,0.00,,---,0.00,VWS V14.01,2013-06-14 18:01:00,
2013-06-14 13:02:00,85.8,38.8,26.37,ESE,116,3.1,3.1,19,0.00,,---,0.00,VWS V14.01,2013-06-14 18:02:00,
2013-06-14 13:04:00,85.6,38.7,26.37,NE,36,4.9,4.9,19,0.00,,---,0.00,VWS V14.01,2013-06-14 18:04:00,
2013-06-14 13:06:00,85.6,38.7,26.37,North,357,2.7,2.7,19,0.00,,---,0.00,VWS V14.01,2013-06-14 18:06:00,
2013-06-14 13:07:00,85.5,37.2,26.37,North,357,2.7,2.7,18,0.00,,---,0.00,VWS V14.01,2013-06-14 18:07:00,
2013-06-14 13:09:00,85.5,37.2,26.46,NNE,27,2.2,3.1,18,0.00,,---,0.00,VWS V14.01,2013-06-14 18:09:00,
2013-06-14 13:11:00,85.3,37.0,26.46,North,357,3.1,3.1,18,0.00,,---,0.00,VWS V14.01,2013-06-14 18:11:00,
2013-06-14 13:12:00,85.3,37.0,26.46,North,357,8.1,8.1,18,0.00,,---,0.00,VWS V14.01,2013-06-14 18:12:00,
2013-06-14 13:14:00,85.1,36.9,26.46,East,92,2.2,2.2,18,0.00,,---,0.00,VWS V14.01,2013-06-14 18:14:00,
2013-06-14 13:16:00,84.9,36.7,26.46,WSW,237,3.6,3.6,18,0.00,,---,0.00,VWS V14.01,2013-06-14 18:16:00,
2013-06-14 13:17:00,84.9,38.1,26.46,WNW,301,3.1,3.6,19,0.00,,---,0.00,VWS V14.01,2013-06-14 18:17:00,
2013-06-14 13:18:00,84.9,38.1,26.46,WNW,301,3.1,3.1,19,0.00,,---,0.00,VWS V14.01,2013-06-14 18:18:00,
2013-06-14 13:19:00,85.1,38.2,26.46,NE,42,2.7,3.6,19,0.00,,---,0.00,VWS V14.01,2013-06-14 18:19:00,
2013-06-14 13:21:00,85.1,38.2,26.46,NE,45,2.7,2.7,19,0.00,,---,0.00,VWS V14.01,2013-06-14 18:21:00,
2013-06-14 13:22:00,85.3,38.4,26.46,NNW,344,4.9,4.9,19,0.00,,---,0.00,VWS V14.01,2013-06-14 18:22:00,
2013-06-14 13:23:00,85.3,38.4,26.46,NNW,344,4.9,4.9,19,0.00,,---,0.00,VWS V14.01,2013-06-14 18:23:00,
2013-06-14 13:25:00,85.3,37.0,26.46,East,88,4.0,5.4,18,0.00,,---,0.00,VWS V14.01,2013-06-14 18:25:00,
2013-06-14 13:27:00,85.1,36.9,26.46,NNE,22,2.7,2.7,18,0.00,,---,0.00,VWS V14.01,2013-06-14 18:27:00,
2013-06-14 13:28:00,85.3,38.4,26.46,NNW,341,0.0,2.7,19,0.00,,---,0.00,VWS V14.01,2013-06-14 18:28:00,
2013-06-14 13:30:00,85.3,38.4,26.46,NE,37,4.9,8.1,19,0.00,,---,0.00,VWS V14.01,2013-06-14 18:30:00,
2013-06-14 13:32:00,85.3,38.4,26.46,ENE,76,2.7,2.7,19,0.00,,---,0.00,VWS V14.01,2013-06-14 18:32:00,
2013-06-14 13:33:00,85.1,38.2,26.46,West,274,2.2,4.0,19,0.00,,---,0.00,VWS V14.01,2013-06-14 18:33:00,
2013-06-14 13:34:00,85.1,38.2,26.46,West,274,2.2,2.2,19,0.00,,---,0.00,VWS V14.01,2013-06-14 18:34:00,
2013-06-14 13:35:00,85.1,38.2,26.46,West,281,5.4,5.4,19,0.00,,---,0.00,VWS V14.01,2013-06-14 18:35:00,
2013-06-14 13:37:00,85.1,38.2,26.46,East,98,5.4,5.4,19,0.00,,---,0.00,VWS V14.01,2013-06-14 18:37:00,
2013-06-14 13:38:00,85.1,38.2,26.46,WNW,302,2.7,5.4,19,0.00,,---,0.00,VWS V14.01,2013-06-14 18:38:00,
2013-06-14 13:39:00,85.1,38.2,26.46,South,171,3.1,3.1,19,0.00,,---,0.00,VWS V14.01,2013-06-14 18:39:00,
2013-06-14 13:41:00,85.1,38.2,26.46,North,10,5.4,5.4,19,0.00,,---,0.00,VWS V14.01,2013-06-14 18:41:00,
2013-06-14 13:42:00,84.9,38.1,26.46,NNW,345,0.0,0.0,19,0.00,,---,0.00,VWS V14.01,2013-06-14 18:42:00,
2013-06-14 13:43:00,84.7,36.6,26.46,West,275,5.8,5.8,18,0.00,,---,0.00,VWS V14.01,2013-06-14 18:43:00,
2013-06-14 13:44:00,84.9,36.7,26.46,NNE,24,2.7,2.7,18,0.00,,---,0.00,VWS V14.01,2013-06-14 18:44:00,
2013-06-14 13:46:00,84.9,38.1,26.46,West,268,4.0,4.0,19,0.00,,---,0.00,VWS V14.01,2013-06-14 18:46:00,
2013-06-14 13:47:00,84.9,38.1,26.46,NNE,12,3.6,4.0,19,0.00,,---,0.00,VWS V14.01,2013-06-14 18:47:00,
2013-06-14 13:48:00,85.1,38.2,26.46,NNE,12,3.6,3.6,19,0.00,,---,0.00,VWS V14.01,2013-06-14 18:48:00,
2013-06-14 13:49:00,84.9,36.7,26.46,NNE,12,3.6,3.6,18,0.00,,---,0.00,VWS V14.01,2013-06-14 18:49:00,
2013-06-14 13:51:00,84.9,38.1,26.46,East,93,0.0,2.7,19,0.00,,---,0.00,VWS V14.01,2013-06-14 18:51:00,
2013-06-14 13:52:00,84.9,39.4,26.46,ENE,71,0.0,0.0,20,0.00,,---,0.00,VWS V14.01,2013-06-14 18:52:00,
2013-06-14 13:53:00,84.9,38.1,26.46,NNE,20,2.7,2.7,19,0.00,,---,0.00,VWS V14.01,2013-06-14 18:53:00,
2013-06-14 13:54:00,85.1,38.2,26.46,NNE,20,2.7,2.7,19,0.00,,---,0.00,VWS V14.01,2013-06-14 18:54:00,
2013-06-14 13:56:00,85.1,38.2,26.43,North,353,3.1,3.6,19,0.00,,---,0.00,VWS V14.01,2013-06-14 18:56:00,
2013-06-14 13:57:00,85.1,36.9,26.43,SW,235,3.6,7.2,18,0.00,,---,0.00,VWS V14.01,2013-06-14 18:57:00,
2013-06-14 13:58:00,85.1,36.9,26.43,North,11,5.4,7.2,18,0.00,,---,0.00,VWS V14.01,2013-06-14 18:58:00,
2013-06-14 13:59:00,85.1,36.9,26.43,North,353,4.9,5.4,18,0.00,,---,0.00,VWS V14.01,2013-06-14 18:59:00,
2013-06-14 14:01:00,85.1,38.2,26.43,North,0,3.1,3.1,19,0.00,,---,0.00,VWS V14.01,2013-06-14 19:01:00,
2013-06-14 14:03:00,85.1,38.2,26.43,NNE,14,2.7,2.7,19,0.00,,---,0.00,VWS V14.01,2013-06-14 19:03:00,
2013-06-14 14:04:00,85.1,38.2,26.43,SSW,204,3.6,3.6,19,0.00,,---,0.00,VWS V14.01,2013-06-14 19:04:00,
2013-06-14 14:06:00,84.9,36.7,26.43,NNE,14,5.4,5.4,18,0.00,,---,0.00,VWS V14.01,2013-06-14 19:06:00,
2013-06-14 14:08:00,84.7,33.6,26.43,NNE,14,3.6,4.9,16,0.00,,---,0.00,VWS V14.01,2013-06-14 19:08:00,
2013-06-14 14:09:00,84.9,33.8,26.43,WSW,237,2.7,8.7,16,0.00,,---,0.00,VWS V14.01,2013-06-14 19:09:00,
2013-06-14 14:10:00,84.9,36.7,26.43,WSW,237,2.7,2.7,18,0.00,,---,0.00,VWS V14.01,2013-06-14 19:10:00,
2013-06-14 14:12:00,84.9,36.7,26.43,North,357,2.2,2.2,18,0.00,,---,0.00,VWS V14.01,2013-06-14 19:12:00,
2013-06-14 14:13:00,84.9,33.8,26.43,North,357,0.0,0.0,16,0.00,,---,0.00,VWS V14.01,2013-06-14 19:13:00,
2013-06-14 14:14:00,84.6,33.5,26.43,WNW,301,7.6,8.3,16,0.00,,---,0.00,VWS V14.01,2013-06-14 19:14:00,
2013-06-14 14:15:00,84.6,36.4,26.40,WNW,301,7.6,7.6,18,0.00,,---,0.00,VWS V14.01,2013-06-14 19:15:00,
2013-06-14 14:17:00,84.4,33.3,26.40,NE,53,2.7,2.7,16,0.00,,---,0.00,VWS V14.01,2013-06-14 19:17:00,
2013-06-14 14:18:00,84.4,33.3,26.40,NNE,27,3.1,3.1,16,0.00,,---,0.00,VWS V14.01,2013-06-14 19:18:00,
2013-06-14 14:19:00,84.4,33.3,26.40,NW,312,5.4,5.4,16,0.00,,---,0.00,VWS V14.01,2013-06-14 19:19:00,
2013-06-14 14:20:00,84.4,33.3,26.40,NW,312,5.4,5.4,16,0.00,,---,0.00,VWS V14.01,2013-06-14 19:20:00,
2013-06-14 14:22:00,84.0,33.0,26.40,East,88,2.7,5.4,16,0.00,,---,0.00,VWS V14.01,2013-06-14 19:22:00,
2013-06-14 14:23:00,83.8,32.9,26.40,East,88,2.7,2.7,16,0.00,,---,0.00,VWS V14.01,2013-06-14 19:23:00,
2013-06-14 14:24:00,83.8,32.9,26.40,ENE,71,6.7,6.7,16,0.00,,---,0.00,VWS V14.01,2013-06-14 19:24:00,
2013-06-14 14:25:00,83.8,32.9,26.40,NNW,327,2.7,6.7,16,0.00,,---,0.00,VWS V14.01,2013-06-14 19:25:00,
2013-06-14 14:27:00,83.7,37.1,17.72,North,0,3.6,7.2,19,0.00,,---,0.00,VWS V14.01,2013-06-14 19:27:00,
2013-06-14 14:28:00,83.5,29.3,17.72,North,353,5.4,5.4,14,0.00,,---,0.00,VWS V14.01,2013-06-14 19:28:00,
2013-06-14 14:29:00,83.5,32.6,17.72,NE,52,5.4,5.4,16,0.00,,---,0.00,VWS V14.01,2013-06-14 19:29:00,
2013-06-14 14:30:00,83.7,37.1,17.72,North,0,3.1,5.4,19,0.00,,---,0.00,VWS V14.01,2013-06-14 19:30:00,
2013-06-14 14:31:00,83.7,37.1,17.72,NW,326,6.3,6.3,19,0.00,,---,0.00,VWS V14.01,2013-06-14 19:31:00,
2013-06-14 14:32:00,83.3,32.5,17.72,WNW,290,3.6,6.3,16,0.00,,---,0.00,VWS V14.01,2013-06-14 19:32:00,
2013-06-14 14:33:00,83.3,32.5,17.72,North,10,3.6,3.6,16,0.00,,---,0.00,VWS V14.01,2013-06-14 19:33:00,
2013-06-14 14:34:00,83.3,32.5,17.72,NNE,25,3.6,3.6,16,0.00,,---,0.00,VWS V14.01,2013-06-14 19:34:00,
2013-06-14 14:35:00,83.3,32.5,17.72,NNE,25,3.6,3.6,16,0.00,,---,0.00,VWS V14.01,2013-06-14 19:35:00,
2013-06-14 14:36:00,83.1,32.3,17.72,NNE,25,3.6,3.6,16,0.00,,---,0.00,VWS V14.01,2013-06-14 19:36:00,
2013-06-14 14:37:00,83.1,32.3,17.72,NE,38,3.1,3.1,16,0.00,,---,0.00,VWS V14.01,2013-06-14 19:37:00,
2013-06-14 14:38:00,83.3,36.8,17.72,NE,50,0.0,0.0,19,0.00,,---,0.00,VWS V14.01,2013-06-14 19:38:00,
2013-06-14 14:39:00,83.3,36.8,17.72,NNE,33,3.1,3.1,19,0.00,,---,0.00,VWS V14.01,2013-06-14 19:39:00,
2013-06-14 14:40:00,83.3,36.8,17.72,NE,35,3.6,3.6,19,0.00,,---,0.00,VWS V14.01,2013-06-14 19:40:00,
2013-06-14 14:41:00,83.3,32.5,17.72,NE,35,3.6,3.6,16,0.00,,---,0.00,VWS V14.01,2013-06-14 19:41:00,
2013-06-14 14:42:00,83.3,32.5,17.72,West,267,2.2,2.7,16,0.00,,---,0.00,VWS V14.01,2013-06-14 19:42:00,
2013-06-14 14:44:00,83.3,36.8,17.72,WNW,297,3.6,3.6,19,0.00,,---,0.00,VWS V14.01,2013-06-14 19:44:00,
2013-06-14 14:45:00,83.5,36.9,26.40,NE,49,3.6,3.6,19,0.00,,---,0.00,VWS V14.01,2013-06-14 19:45:00,
2013-06-14 14:46:00,83.5,36.9,26.40,NE,49,3.6,3.6,19,0.00,,---,0.00,VWS V14.01,2013-06-14 19:46:00,
2013-06-14 14:48:00,83.5,36.9,26.40,SSW,200,2.2,2.2,19,0.00,,---,0.00,VWS V14.01,2013-06-14 19:48:00,
2013-06-14 14:49:00,83.5,36.9,26.40,South,170,0.0,3.1,19,0.00,,---,0.00,VWS V14.01,2013-06-14 19:49:00,
2013-06-14 14:50:00,83.5,36.9,26.40,NNW,338,2.7,3.1,19,0.00,,---,0.00,VWS V14.01,2013-06-14 19:50:00,
2013-06-14 14:51:00,83.5,36.9,26.40,North,353,4.0,4.0,19,0.00,,---,0.00,VWS V14.01,2013-06-14 19:51:00,
2013-06-14 14:53:00,83.7,37.1,26.40,NNW,344,2.7,3.6,19,0.00,,---,0.00,VWS V14.01,2013-06-14 19:53:00,
2013-06-14 14:54:00,83.7,37.1,26.40,North,7,4.0,4.0,19,0.00,,---,0.00,VWS V14.01,2013-06-14 19:54:00,
2013-06-14 14:55:00,83.7,37.1,26.40,North,7,4.0,4.0,19,0.00,,---,0.00,VWS V14.01,2013-06-14 19:55:00,
2013-06-14 14:56:00,83.8,37.2,26.40,NNW,338,4.0,4.0,19,0.00,,---,0.00,VWS V14.01,2013-06-14 19:56:00,
2013-06-14 14:58:00,83.8,37.2,26.40,WNW,292,3.1,3.1,19,0.00,,---,0.00,VWS V14.01,2013-06-14 19:58:00,
2013-06-14 15:00:00,83.7,37.1,26.40,WNW,292,3.1,3.1,19,0.00,,---,0.00,VWS V14.01,2013-06-14 20:00:00,
2013-06-14 15:01:00,83.7,37.1,26.40,West,265,2.2,2.2,19,0.00,,---,0.00,VWS V14.01,2013-06-14 20:01:00,
2013-06-14 15:02:00,83.7,37.1,26.40,West,265,2.2,2.2,19,0.00,,---,0.00,VWS V14.01,2013-06-14 20:02:00,
2013-06-14 15:03:00,83.7,37.1,26.40,South,185,2.2,2.2,19,0.00,,---,0.00,VWS V14.01,2013-06-14 20:03:00,
2013-06-14 15:05:00,83.7,37.1,26.40,NNE,13,3.1,3.1,19,0.00,,---,0.00,VWS V14.01,2013-06-14 20:05:00,
2013-06-14 15:06:00,83.7,37.1,26.40,NNE,13,3.1,3.1,19,0.00,,---,0.00,VWS V14.01,2013-06-14 20:06:00,
2013-06-14 15:07:00,83.7,37.1,26.40,NNE,13,3.1,3.1,19,0.00,,---,0.00,VWS V14.01,2013-06-14 20:07:00,
2013-06-14 15:09:00,83.7,37.1,26.40,NNW,335,5.8,5.8,19,0.00,,---,0.00,VWS V14.01,2013-06-14 20:09:00,
2013-06-14 15:10:00,83.7,37.1,26.40,NNW,335,5.8,5.8,19,0.00,,---,0.00,VWS V14.01,2013-06-14 20:10:00,
2013-06-14 15:11:00,83.7,37.1,26.40,East,85,2.7,2.7,19,0.00,,---,0.00,VWS V14.01,2013-06-14 20:11:00,
2013-06-14 15:12:00,83.5,36.9,26.40,East,85,2.7,2.7,19,0.00,,---,0.00,VWS V14.01,2013-06-14 20:12:00,
2013-06-14 15:14:00,83.1,36.6,26.40,NW,308,2.2,3.6,19,0.00,,---,0.00,VWS V14.01,2013-06-14 20:14:00,
2013-06-14 15:15:00,83.1,36.6,26.40,North,0,2.7,2.7,19,0.00,,---,0.00,VWS V14.01,2013-06-14 20:15:00,
2013-06-14 15:16:00,83.1,36.6,26.40,ENE,69,2.7,3.6,19,0.00,,---,0.00,VWS V14.01,2013-06-14 20:16:00,
2013-06-14 15:18:00,82.9,36.5,26.40,SE,135,2.7,4.0,19,0.00,,---,0.00,VWS V14.01,2013-06-14 20:18:00,
2013-06-14 15:19:00,82.8,36.3,26.40,NNW,338,4.5,4.5,19,0.00,,---,0.00,VWS V14.01,2013-06-14 20:19:00,
2013-06-14 15:20:00,82.8,36.3,26.40,North,10,3.6,4.5,19,0.00,,---,0.00,VWS V14.01,2013-06-14 20:20:00,
2013-06-14 15:21:00,82.8,36.3,26.40,NNE,24,4.0,4.0,19,0.00,,---,0.00,VWS V14.01,2013-06-14 20:21:00,
2013-06-14 15:23:00,82.8,36.3,26.40,WNW,291,3.1,3.1,19,0.00,,---,0.00,VWS V14.01,2013-06-14 20:23:00,
2013-06-14 15:24:00,82.8,36.3,26.40,WNW,291,3.1,3.1,19,0.00,,---,0.00,VWS V14.01,2013-06-14 20:24:00,
2013-06-14 15:25:00,82.8,36.3,26.40,WNW,300,2.2,3.1,19,0.00,,---,0.00,VWS V14.01,2013-06-14 20:25:00,
2013-06-14 15:26:00,82.9,36.5,26.40,WNW,300,2.2,2.2,19,0.00,,---,0.00,VWS V14.01,2013-06-14 20:26:00,
2013-06-14 15:28:00,82.9,37.8,26.40,NW,319,3.1,3.1,20,0.00,,---,0.00,VWS V14.01,2013-06-14 20:28:00,
2013-06-14 15:29:00,83.1,37.9,26.40,NE,39,2.7,2.7,20,0.00,,---,0.00,VWS V14.01,2013-06-14 20:29:00,
2013-06-14 15:31:00,83.1,37.9,26.40,NNW,330,2.2,2.2,20,0.00,,---,0.00,VWS V14.01,2013-06-14 20:31:00,
2013-06-14 15:33:00,83.1,36.6,26.37,NNW,341,0.0,0.0,19,0.00,,---,0.00,VWS V14.01,2013-06-14 20:33:00,
2013-06-14 15:34:00,83.1,36.6,26.37,NNW,341,0.0,0.0,19,0.00,,---,0.00,VWS V14.01,2013-06-14 20:34:00,
2013-06-14 15:36:00,83.1,36.6,26.37,East,94,2.7,3.1,19,0.00,,---,0.00,VWS V14.01,2013-06-14 20:36:00,
2013-06-14 15:38:00,82.9,36.5,26.37,WNW,285,3.6,3.6,19,0.00,,---,0.00,VWS V14.01,2013-06-14 20:38:00,
2013-06-14 15:39:00,82.9,36.5,26.37,West,272,0.0,0.0,19,0.00,,---,0.00,VWS V14.01,2013-06-14 20:39:00,
2013-06-14 15:41:00,82.9,36.5,26.40,WNW,301,0.0,2.7,19,0.00,,---,0.00,VWS V14.01,2013-06-14 20:41:00,
2013-06-14 15:44:00,82.9,37.8,26.40,North,11,0.0,0.0,20,0.00,,---,0.00,VWS V14.01,2013-06-14 20:44:00,
2013-06-14 15:46:00,82.9,37.8,26.40,SW,221,0.0,0.0,20,0.00,,---,0.00,VWS V14.01,2013-06-14 20:46:00,
2013-06-14 15:47:00,82.9,37.8,26.40,SW,221,0.0,0.0,20,0.00,,---,0.00,VWS V14.01,2013-06-14 20:47:00,
2013-06-14 15:49:00,82.9,37.8,26.40,North,3,2.7,2.7,20,0.00,,---,0.00,VWS V14.01,2013-06-14 20:49:00,
2013-06-14 15:51:00,82.8,36.3,26.40,NNW,329,0.0,4.0,19,0.00,,---,0.00,VWS V14.01,2013-06-14 20:51:00,
2013-06-14 15:52:00,82.8,36.3,26.40,NNW,329,0.0,0.0,19,0.00,,---,0.00,VWS V14.01,2013-06-14 20:52:00,
2013-06-14 15:54:00,82.8,36.3,19.93,NNW,329,0.0,0.0,19,0.00,,---,0.00,VWS V14.01,2013-06-14 20:54:00,
2013-06-14 15:56:00,82.8,37.6,19.93,ENE,57,0.0,2.2,20,0.00,,---,0.00,VWS V14.01,2013-06-14 20:56:00,
2013-06-14 15:57:00,82.8,37.6,19.93,NNE,30,3.1,3.1,20,0.00,,---,0.00,VWS V14.01,2013-06-14 20:57:00,
2013-06-14 15:59:00,82.6,37.5,19.93,North,1,4.0,4.0,20,0.00,,---,0.00,VWS V14.01,2013-06-14 20:59:00,
2013-06-14 16:00:00,82.6,37.5,19.93,NNE,23,4.0,4.0,20,0.00,,---,0.00,VWS V14.01,2013-06-14 21:00:00,
2013-06-14 16:01:00,82.4,36.0,19.93,East,87,4.9,4.9,19,0.00,,---,0.00,VWS V14.01,2013-06-14 21:01:00,
2013-06-14 16:02:00,82.4,36.0,19.93,NW,323,7.6,7.6,19,0.00,,---,0.00,VWS V14.01,2013-06-14 21:02:00,
2013-06-14 16:04:00,82.2,37.2,19.93,NE,41,3.1,3.1,20,0.00,,---,0.00,VWS V14.01,2013-06-14 21:04:00,
2013-06-14 16:05:00,82.2,37.2,19.93,ESE,103,2.7,3.1,20,0.00,,---,0.00,VWS V14.01,2013-06-14 21:05:00,
2013-06-14 16:07:00,82.2,37.2,19.93,ESE,103,2.7,3.1,20,0.00,,---,0.00,VWS V14.01,2013-06-14 21:07:00,
2013-06-14 16:09:00,82.0,35.8,19.93,NE,35,5.8,5.8,19,0.00,,---,0.00,VWS V14.01,2013-06-14 21:09:00,
2013-06-14 16:10:00,82.0,37.0,17.72,NNW,344,5.4,5.4,20,0.00,,---,0.00,VWS V14.01,2013-06-14 21:10:00,
2013-06-14 16:12:00,81.9,36.9,17.72,NE,55,3.1,3.1,20,0.00,,---,0.00,VWS V14.01,2013-06-14 21:12:00,
2013-06-14 16:15:00,81.7,36.8,17.72,NNW,331,2.7,2.7,20,0.00,,---,0.00,VWS V14.01,2013-06-14 21:15:00,
2013-06-14 16:16:00,81.7,36.8,17.72,ENE,58,2.7,2.7,20,0.00,,---,0.00,VWS V14.01,2013-06-14 21:16:00,
2013-06-14 16:17:00,81.7,36.8,17.72,WNW,282,2.2,2.2,20,0.00,,---,0.00,VWS V14.01,2013-06-14 21:17:00,
2013-06-14 16:18:00,81.7,36.8,17.72,WNW,282,2.2,2.2,20,0.00,,---,0.00,VWS V14.01,2013-06-14 21:18:00,
2013-06-14 16:20:00,81.5,36.6,17.72,WNW,282,2.2,2.2,20,0.00,,---,0.00,VWS V14.01,2013-06-14 21:20:00,
2013-06-14 16:21:00,81.5,36.6,17.72,NE,46,5.4,5.4,20,0.00,,---,0.00,VWS V14.01,2013-06-14 21:21:00,
2013-06-14 16:22:00,81.5,36.6,17.72,South,183,0.0,4.9,20,0.00,,---,0.00,VWS V14.01,2013-06-14 21:22:00,
2013-06-14 16:23:00,81.5,36.6,17.72,South,183,0.0,0.0,20,0.00,,---,0.00,VWS V14.01,2013-06-14 21:23:00,
2013-06-14 16:24:00,81.3,36.5,26.37,SSW,205,2.7,3.1,20,0.00,,---,0.00,VWS V14.01,2013-06-14 21:24:00,
2013-06-14 16:25:00,81.3,36.5,26.37,NNE,17,4.9,4.9,20,0.00,,---,0.00,VWS V14.01,2013-06-14 21:25:00,
2013-06-14 16:26:00,81.3,36.5,26.37,NE,44,3.1,4.0,20,0.00,,---,0.00,VWS V14.01,2013-06-14 21:26:00,
2013-06-14 16:27:00,81.1,35.0,26.37,North,8,3.6,3.6,19,0.00,,---,0.00,VWS V14.01,2013-06-14 21:27:00,
2013-06-14 16:28:00,81.1,35.0,26.37,NE,51,4.0,4.0,19,0.00,,---,0.00,VWS V14.01,2013-06-14 21:28:00,
2013-06-14 16:30:00,81.0,34.9,26.37,North,357,3.1,3.1,19,0.00,,---,0.00,VWS V14.01,2013-06-14 21:30:00,
2013-06-14 16:32:00,81.0,34.9,26.37,NE,46,2.7,3.6,19,0.00,,---,0.00,VWS V14.01,2013-06-14 21:32:00,
2013-06-14 16:33:00,80.8,36.0,26.37,WNW,295,0.0,2.7,20,0.00,,---,0.00,VWS V14.01,2013-06-14 21:33:00,
2013-06-14 16:35:00,80.8,36.0,26.37,NNE,28,3.1,3.1,20,0.00,,---,0.00,VWS V14.01,2013-06-14 21:35:00,
2013-06-14 16:36:00,80.8,36.0,26.37,NNE,28,3.1,3.1,20,0.00,,---,0.00,VWS V14.01,2013-06-14 21:36:00,
2013-06-14 16:37:00,80.8,36.0,26.37,SSW,197,2.2,2.2,20,0.00,,---,0.00,VWS V14.01,2013-06-14 21:37:00,
2013-06-14 16:38:00,80.6,35.9,26.37,SSE,151,3.1,3.1,20,0.00,,---,0.00,VWS V14.01,2013-06-14 21:38:00,
2013-06-14 16:40:00,80.6,34.6,26.37,NW,307,3.6,6.3,19,0.00,,---,0.00,VWS V14.01,2013-06-14 21:40:00,
2013-06-14 16:41:00,80.6,34.6,26.37,WNW,302,2.7,3.6,19,0.00,,---,0.00,VWS V14.01,2013-06-14 21:41:00,
2013-06-14 16:42:00,80.4,35.7,26.37,ESE,103,2.7,2.7,20,0.00,,---,0.00,VWS V14.01,2013-06-14 21:42:00,
2013-06-14 16:43:00,80.4,35.7,26.37,NNE,33,3.1,3.1,20,0.00,,---,0.00,VWS V14.01,2013-06-14 21:43:00,
2013-06-14 16:45:00,80.2,35.6,26.37,SSE,166,4.9,4.9,20,0.00,,---,0.00,VWS V14.01,2013-06-14 21:45:00,
2013-06-14 16:46:00,80.2,35.6,20.64,North,11,4.0,5.4,20,0.00,,---,0.00,VWS V14.01,2013-06-14 21:46:00,
2013-06-14 16:47:00,80.2,35.6,20.64,NNE,25,3.1,3.1,20,0.00,,---,0.00,VWS V14.01,2013-06-14 21:47:00,
2013-06-14 16:48:00,80.2,35.6,20.64,NNE,25,3.1,3.1,20,0.00,,---,0.00,VWS V14.01,2013-06-14 21:48:00,
2013-06-14 16:50:00,80.1,35.4,20.64,North,357,4.0,4.0,20,0.00,,---,0.00,VWS V14.01,2013-06-14 21:50:00,
2013-06-14 16:51:00,80.1,35.4,20.64,NNW,341,4.9,4.9,20,0.00,,---,0.00,VWS V14.01,2013-06-14 21:51:00,
2013-06-14 16:52:00,80.1,35.4,20.64,NNW,342,3.1,3.1,20,0.00,,---,0.00,VWS V14.01,2013-06-14 21:52:00,
2013-06-14 16:53:00,80.1,35.4,20.64,NNW,342,2.2,3.1,20,0.00,,---,0.00,VWS V14.01,2013-06-14 21:53:00,
2013-06-14 16:55:00,80.1,35.4,20.64,NE,48,2.2,4.0,20,0.00,,---,0.00,VWS V14.01,2013-06-14 21:55:00,
2013-06-14 16:56:00,80.1,35.4,20.64,North,1,2.7,2.7,20,0.00,,---,0.00,VWS V14.01,2013-06-14 21:56:00,
2013-06-14 16:57:00,80.1,35.4,26.34,ENE,69,3.1,3.1,20,0.00,,---,0.00,VWS V14.01,2013-06-14 21:57:00,
2013-06-14 16:58:00,79.9,35.3,26.34,ENE,69,3.1,3.1,20,0.00,,---,0.00,VWS V14.01,2013-06-14 21:58:00,
2013-06-14 17:01:00,80.1,36.7,26.34,North,2,3.1,3.1,21,0.00,,---,0.00,VWS V14.01,2013-06-14 22:01:00,
2013-06-14 17:02:00,79.9,36.5,26.34,North,2,3.1,3.1,21,0.00,,---,0.00,VWS V14.01,2013-06-14 22:02:00,
2013-06-14 17:03:00,79.9,36.5,26.34,NNE,24,2.7,3.1,21,0.00,,---,0.00,VWS V14.01,2013-06-14 22:03:00,
2013-06-14 17:06:00,79.9,36.5,26.34,NNW,346,4.5,4.5,21,0.00,,---,0.00,VWS V14.01,2013-06-14 22:06:00,
2013-06-14 17:07:00,79.9,36.5,26.34,West,272,2.2,4.5,21,0.00,,---,0.00,VWS V14.01,2013-06-14 22:07:00,
2013-06-14 17:08:00,79.9,36.5,26.34,NNE,15,4.0,4.0,21,0.00,,---,0.00,VWS V14.01,2013-06-14 22:08:00,
2013-06-14 17:09:00,79.9,36.5,26.34,NNE,15,4.0,4.0,21,0.00,,---,0.00,VWS V14.01,2013-06-14 22:09:00,
2013-06-14 17:12:00,79.7,36.3,26.37,North,0,3.6,3.6,21,0.00,,---,0.00,VWS V14.01,2013-06-14 22:12:00,
2013-06-14 17:13:00,79.7,36.3,26.37,North,353,3.1,3.1,21,0.00,,---,0.00,VWS V14.01,2013-06-14 22:13:00,
2013-06-14 17:14:00,79.5,35.0,26.37,West,259,3.6,8.1,20,0.00,,---,0.00,VWS V14.01,2013-06-14 22:14:00,
2013-06-14 17:17:00,79.7,36.3,26.37,North,10,0.0,0.0,21,0.00,,---,0.00,VWS V14.01,2013-06-14 22:17:00,
2013-06-14 17:18:00,79.5,36.2,26.37,SSW,194,0.0,0.0,21,0.00,,---,0.00,VWS V14.01,2013-06-14 22:18:00,
2013-06-14 17:20:00,79.5,36.2,26.37,NE,38,2.7,2.7,21,0.00,,---,0.00,VWS V14.01,2013-06-14 22:20:00,
2013-06-14 17:22:00,79.3,36.0,26.37,NNW,331,3.1,3.1,21,0.00,,---,0.00,VWS V14.01,2013-06-14 22:22:00,
2013-06-14 17:23:00,79.5,36.2,26.37,NNW,331,3.1,3.1,21,0.00,,---,0.00,VWS V14.01,2013-06-14 22:23:00,
2013-06-14 17:25:00,79.5,36.2,26.37,NNE,21,2.7,2.7,21,0.00,,---,0.00,VWS V14.01,2013-06-14 22:25:00,
2013-06-14 17:27:00,79.5,36.2,26.37,South,187,0.0,0.0,21,0.00,,---,0.00,VWS V14.01,2013-06-14 22:27:00,
2013-06-14 17:28:00,79.3,36.0,26.37,South,187,0.0,0.0,21,0.00,,---,0.00,VWS V14.01,2013-06-14 22:28:00,
2013-06-14 17:30:00,79.3,36.0,26.34,NNE,29,2.2,2.2,21,0.00,,---,0.00,VWS V14.01,2013-06-14 22:30:00,
2013-06-14 17:32:00,79.3,36.0,26.34,NNE,12,2.7,5.4,21,0.00,,---,0.00,VWS V14.01,2013-06-14 22:32:00,
2013-06-14 17:33:00,79.3,36.0,26.34,NNE,31,0.0,0.0,21,0.00,,---,0.00,VWS V14.01,2013-06-14 22:33:00,
2013-06-14 17:35:00,79.3,36.0,26.34,WNW,300,3.1,3.1,21,0.00,,---,0.00,VWS V14.01,2013-06-14 22:35:00,
2013-06-14 17:37:00,79.2,35.9,26.34,ESE,103,0.0,4.9,21,0.00,,---,0.00,VWS V14.01,2013-06-14 22:37:00,
2013-06-14 17:38:00,79.0,35.8,26.34,ENE,66,2.7,2.7,21,0.00,,---,0.00,VWS V14.01,2013-06-14 22:38:00,
2013-06-14 17:39:00,79.0,35.8,26.34,ENE,66,2.7,2.7,21,0.00,,---,0.00,VWS V14.01,2013-06-14 22:39:00,
2013-06-14 17:40:00,79.0,35.8,26.34,NE,45,0.0,3.1,21,0.00,,---,0.00,VWS V14.01,2013-06-14 22:40:00,
2013-06-14 17:42:00,79.0,36.9,26.34,NNE,33,3.6,3.6,22,0.00,,---,0.00,VWS V14.01,2013-06-14 22:42:00,
2013-06-14 17:43:00,78.8,35.6,26.34,NNE,33,3.6,3.6,21,0.00,,---,0.00,VWS V14.01,2013-06-14 22:43:00,
2013-06-14 17:44:00,78.8,35.6,26.34,NNE,33,3.6,3.6,21,0.00,,---,0.00,VWS V14.01,2013-06-14 22:44:00,
2013-06-14 17:45:00,78.8,35.6,26.34,North,8,2.7,3.6,21,0.00,,---,0.00,VWS V14.01,2013-06-14 22:45:00,
2013-06-14 17:47:00,78.8,35.6,26.34,NE,37,3.6,4.9,21,0.00,,---,0.00,VWS V14.01,2013-06-14 22:47:00,
2013-06-14 17:48:00,78.8,35.6,26.34,NE,37,3.6,3.6,21,0.00,,---,0.00,VWS V14.01,2013-06-14 22:48:00,
2013-06-14 17:49:00,78.8,35.6,26.34,NE,37,3.6,3.6,21,0.00,,---,0.00,VWS V14.01,2013-06-14 22:49:00,
2013-06-14 17:50:00,78.6,35.5,26.34,NE,43,3.1,3.6,21,0.00,,---,0.00,VWS V14.01,2013-06-14 22:50:00,
2013-06-14 17:52:00,78.6,35.5,26.34,North,353,5.8,5.8,21,0.00,,---,0.00,VWS V14.01,2013-06-14 22:52:00,
2013-06-14 17:54:00,78.6,34.2,26.34,ENE,57,3.1,3.1,20,0.00,,---,0.00,VWS V14.01,2013-06-14 22:54:00,
2013-06-14 17:55:00,78.6,35.5,26.34,North,8,4.0,4.0,21,0.00,,---,0.00,VWS V14.01,2013-06-14 22:55:00,
2013-06-14 17:57:00,78.4,35.3,26.34,North,8,3.1,4.9,21,0.00,,---,0.00,VWS V14.01,2013-06-14 22:57:00,
2013-06-14 17:58:00,78.4,35.3,26.34,North,8,3.1,3.1,21,0.00,,---,0.00,VWS V14.01,2013-06-14 22:58:00,
2013-06-14 17:59:00,78.4,35.3,26.34,ENE,65,5.8,7.6,21,0.00,,---,0.00,VWS V14.01,2013-06-14 22:59:00,
2013-06-14 18:00:00,78.3,33.9,26.34,ENE,68,3.1,3.6,20,0.00,,---,0.00,VWS V14.01,2013-06-14 23:00:00,
2013-06-14 18:02:00,78.3,33.9,26.34,ENE,69,2.2,2.7,20,0.00,,---,0.00,VWS V14.01,2013-06-14 23:02:00,
2013-06-14 18:03:00,78.3,33.9,26.37,ENE,69,2.2,2.7,20,0.00,,---,0.00,VWS V14.01,2013-06-14 23:03:00,
2013-06-14 18:04:00,78.1,33.8,26.37,ENE,69,2.2,2.2,20,0.00,,---,0.00,VWS V14.01,2013-06-14 23:04:00,
2013-06-14 18:05:00,78.3,33.9,26.37,NNE,24,3.1,3.1,20,0.00,,---,0.00,VWS V14.01,2013-06-14 23:05:00,
2013-06-14 18:07:00,78.1,33.8,26.37,NNW,341,2.2,2.2,20,0.00,,---,0.00,VWS V14.01,2013-06-14 23:07:00,
2013-06-14 18:08:00,78.1,33.8,26.37,South,175,2.2,2.2,20,0.00,,---,0.00,VWS V14.01,2013-06-14 23:08:00,
2013-06-14 18:09:00,78.1,33.8,26.37,North,357,4.0,4.0,20,0.00,,---,0.00,VWS V14.01,2013-06-14 23:09:00,
2013-06-14 18:10:00,77.9,33.6,26.37,North,357,4.0,4.0,20,0.00,,---,0.00,VWS V14.01,2013-06-14 23:10:00,
2013-06-14 18:12:00,77.9,33.6,26.37,ENE,59,2.2,4.9,20,0.00,,---,0.00,VWS V14.01,2013-06-14 23:12:00,
2013-06-14 18:13:00,77.9,33.6,26.37,ENE,59,2.2,4.9,20,0.00,,---,0.00,VWS V14.01,2013-06-14 23:13:00,
2013-06-14 18:14:00,77.7,34.7,26.37,ENE,59,2.2,2.2,21,0.00,,---,0.00,VWS V14.01,2013-06-14 23:14:00,
2013-06-14 18:15:00,77.7,34.7,26.37,North,353,3.6,3.6,21,0.00,,---,0.00,VWS V14.01,2013-06-14 23:15:00,
2013-06-14 18:17:00,77.7,34.7,26.34,NW,315,0.0,2.2,21,0.00,,---,0.00,VWS V14.01,2013-06-14 23:17:00,
2013-06-14 18:18:00,77.7,34.7,26.34,NW,315,0.0,0.0,21,0.00,,---,0.00,VWS V14.01,2013-06-14 23:18:00,
2013-06-14 18:19:00,77.5,34.6,26.34,East,91,0.0,0.0,21,0.00,,---,0.00,VWS V14.01,2013-06-14 23:19:00,
2013-06-14 18:20:00,77.5,34.6,26.34,North,357,2.7,2.7,21,0.00,,---,0.00,VWS V14.01,2013-06-14 23:20:00,
2013-06-14 18:23:00,77.5,34.6,26.34,NNE,28,2.7,2.7,21,0.00,,---,0.00,VWS V14.01,2013-06-14 23:23:00,
2013-06-14 18:24:00,77.4,34.4,26.34,NNW,333,0.0,0.0,21,0.00,,---,0.00,VWS V14.01,2013-06-14 23:24:00,
2013-06-14 18:25:00,77.4,34.4,26.34,NNW,333,0.0,0.0,21,0.00,,---,0.00,VWS V14.01,2013-06-14 23:25:00,
2013-06-14 18:27:00,77.4,34.4,26.34,NNW,329,0.0,0.0,21,0.00,,---,0.00,VWS V14.01,2013-06-14 23:27:00,
2013-06-14 18:28:00,77.2,34.3,26.34,NNW,328,0.0,0.0,21,0.00,,---,0.00,VWS V14.01,2013-06-14 23:28:00,
2013-06-14 18:29:00,77.2,34.3,26.34,NNW,329,0.0,0.0,21,0.00,,---,0.00,VWS V14.01,2013-06-14 23:29:00,
2013-06-14 18:30:00,77.2,34.3,26.34,NNW,329,0.0,0.0,21,0.00,,---,0.00,VWS V14.01,2013-06-14 23:30:00,
2013-06-14 18:33:00,77.0,35.3,26.34,NE,38,2.2,2.2,22,0.00,,---,0.00,VWS V14.01,2013-06-14 23:33:00,
2013-06-14 18:34:00,77.0,35.3,26.34,North,353,0.0,2.2,22,0.00,,---,0.00,VWS V14.01,2013-06-14 23:34:00,
2013-06-14 18:35:00,76.8,35.1,17.72,North,353,0.0,0.0,22,0.00,,---,0.00,VWS V14.01,2013-06-14 23:35:00,
2013-06-14 18:38:00,76.8,35.1,17.72,North,353,0.0,0.0,22,0.00,,---,0.00,VWS V14.01,2013-06-14 23:38:00,
2013-06-14 18:39:00,76.8,35.1,17.72,North,353,0.0,0.0,22,0.00,,---,0.00,VWS V14.01,2013-06-14 23:39:00,
2013-06-14 18:41:00,76.6,35.0,17.72,North,353,0.0,0.0,22,0.00,,---,0.00,VWS V14.01,2013-06-14 23:41:00,
2013-06-14 18:43:00,76.6,35.0,17.72,NE,49,4.0,4.0,22,0.00,,---,0.00,VWS V14.01,2013-06-14 23:43:00,
2013-06-14 18:44:00,76.5,36.0,17.72,North,11,0.0,2.7,23,0.00,,---,0.00,VWS V14.01,2013-06-14 23:44:00,
2013-06-14 18:46:00,76.5,36.0,18.69,NE,36,0.0,2.7,23,0.00,,---,0.00,VWS V14.01,2013-06-14 23:46:00,
2013-06-14 18:48:00,76.3,35.8,18.69,NE,36,0.0,2.7,23,0.00,,---,0.00,VWS V14.01,2013-06-14 23:48:00,
2013-06-14 18:49:00,76.3,35.8,18.69,NE,36,0.0,0.0,23,0.00,,---,0.00,VWS V14.01,2013-06-14 23:49:00,
2013-06-14 18:50:00,76.3,35.8,18.69,NE,36,0.0,0.0,23,0.00,,---,0.00,VWS V14.01,2013-06-14 23:50:00,
2013-06-14 18:51:00,76.1,35.7,18.69,NE,36,0.0,0.0,23,0.00,,---,0.00,VWS V14.01,2013-06-14 23:51:00,
2013-06-14 18:53:00,76.1,36.7,18.69,NE,36,0.0,0.0,24,0.00,,---,0.00,VWS V14.01,2013-06-14 23:53:00,
2013-06-14 18:55:00,75.9,36.6,18.69,NE,36,0.0,0.0,24,0.00,,---,0.00,VWS V14.01,2013-06-14 23:55:00,
2013-06-14 18:56:00,75.9,36.6,18.69,NE,36,0.0,0.0,24,0.00,,---,0.00,VWS V14.01,2013-06-14 23:56:00,
2013-06-14 18:58:00,75.7,37.5,18.69,NE,36,0.0,0.0,25,0.00,,---,0.00,VWS V14.01,2013-06-14 23:58:00,
2013-06-14 19:00:00,75.7,37.5,18.69,NE,39,0.0,3.1,25,0.00,,---,0.00,VWS V14.01,2013-06-15 00:00:00,
2013-06-14 19:01:00,75.6,37.3,18.69,NE,39,0.0,0.0,25,0.00,,---,0.00,VWS V14.01,2013-06-15 00:01:00,
2013-06-14 19:03:00,75.6,37.3,18.69,North,9,3.1,3.1,25,0.00,,---,0.00,VWS V14.01,2013-06-15 00:03:00,
2013-06-14 19:05:00,75.4,37.2,18.69,WNW,285,3.1,3.1,25,0.00,,---,0.00,VWS V14.01,2013-06-15 00:05:00,
2013-06-14 19:06:00,75.4,37.2,18.07,WNW,285,0.0,0.0,25,0.00,,---,0.00,VWS V14.01,2013-06-15 00:06:00,
2013-06-14 19:08:00,75.2,37.0,18.07,WNW,285,0.0,0.0,25,0.00,,---,0.00,VWS V14.01,2013-06-15 00:08:00,
2013-06-14 19:10:00,75.0,37.8,18.07,WNW,285,0.0,0.0,26,0.00,,---,0.00,VWS V14.01,2013-06-15 00:10:00,
2013-06-14 19:11:00,75.0,37.8,18.07,WNW,285,0.0,0.0,26,0.00,,---,0.00,VWS V14.01,2013-06-15 00:11:00,
2013-06-14 19:14:00,74.8,37.7,18.07,WNW,285,0.0,0.0,26,0.00,,---,0.00,VWS V14.01,2013-06-15 00:14:00,
2013-06-14 19:15:00,74.8,37.7,18.07,WNW,285,0.0,0.0,26,0.00,,---,0.00,VWS V14.01,2013-06-15 00:15:00,
2013-06-14 19:16:00,74.8,37.7,18.07,WNW,285,0.0,0.0,26,0.00,,---,0.00,VWS V14.01,2013-06-15 00:16:00,
2013-06-14 19:19:00,74.5,38.3,17.72,WNW,285,0.0,0.0,27,0.00,,---,0.00,VWS V14.01,2013-06-15 00:19:00,
2013-06-14 19:20:00,74.5,38.3,17.72,WNW,285,0.0,0.0,27,0.00,,---,0.00,VWS V14.01,2013-06-15 00:20:00,
2013-06-14 19:21:00,74.5,38.3,17.72,WNW,285,0.0,0.0,27,0.00,,---,0.00,VWS V14.01,2013-06-15 00:21:00,
2013-06-14 19:24:00,74.1,38.0,17.72,WNW,285,0.0,0.0,27,0.00,,---,0.00,VWS V14.01,2013-06-15 00:24:00,
2013-06-14 19:25:00,74.1,38.0,17.72,WNW,285,0.0,0.0,27,0.00,,---,0.00,VWS V14.01,2013-06-15 00:25:00,
2013-06-14 19:26:00,74.1,38.0,17.72,WNW,285,0.0,0.0,27,0.00,,---,0.00,VWS V14.01,2013-06-15 00:26:00,
2013-06-14 19:27:00,74.1,38.0,17.72,WNW,285,0.0,0.0,27,0.00,,---,0.00,VWS V14.01,2013-06-15 00:27:00,
2013-06-14 19:30:00,73.9,37.9,17.72,WNW,285,0.0,0.0,27,0.00,,---,0.00,VWS V14.01,2013-06-15 00:30:00,
2013-06-14 19:31:00,73.8,37.7,17.72,WNW,285,0.0,0.0,27,0.00,,---,0.00,VWS V14.01,2013-06-15 00:31:00,
2013-06-14 19:32:00,73.8,37.7,17.72,WNW,285,0.0,0.0,27,0.00,,---,0.00,VWS V14.01,2013-06-15 00:32:00,
2013-06-14 19:35:00,73.6,38.5,17.72,WNW,285,0.0,0.0,28,0.00,,---,0.00,VWS V14.01,2013-06-15 00:35:00,
2013-06-14 19:36:00,73.4,38.3,17.72,WNW,285,0.0,0.0,28,0.00,,---,0.00,VWS V14.01,2013-06-15 00:36:00,
2013-06-14 19:38:00,73.4,39.2,17.72,WNW,285,0.0,0.0,29,0.00,,---,0.00,VWS V14.01,2013-06-15 00:38:00,
2013-06-14 19:40:00,73.2,39.1,17.72,WNW,285,0.0,0.0,29,0.00,,---,0.00,VWS V14.01,2013-06-15 00:40:00,
2013-06-14 19:41:00,73.2,39.1,17.72,WNW,285,0.0,0.0,29,0.00,,---,0.00,VWS V14.01,2013-06-15 00:41:00,
2013-06-14 19:43:00,73.0,39.8,17.72,WNW,285,0.0,0.0,30,0.00,,---,0.00,VWS V14.01,2013-06-15 00:43:00,
2013-06-14 19:45:00,73.0,39.8,17.72,WNW,285,0.0,0.0,30,0.00,,---,0.00,VWS V14.01,2013-06-15 00:45:00,
2013-06-14 19:46:00,73.0,39.8,17.72,WNW,285,0.0,0.0,30,0.00,,---,0.00,VWS V14.01,2013-06-15 00:46:00,
2013-06-14 19:48:00,72.9,40.5,17.72,WNW,285,0.0,0.0,31,0.00,,---,0.00,VWS V14.01,2013-06-15 00:48:00,
2013-06-14 19:50:00,72.9,40.5,17.72,WNW,285,0.0,0.0,31,0.00,,---,0.00,VWS V14.01,2013-06-15 00:50:00,
2013-06-14 19:51:00,72.9,40.5,17.72,WNW,285,0.0,0.0,31,0.00,,---,0.00,VWS V14.01,2013-06-15 00:51:00,
2013-06-14 19:53:00,72.5,40.2,17.72,WNW,285,0.0,0.0,31,0.00,,---,0.00,VWS V14.01,2013-06-15 00:53:00,
2013-06-14 19:55:00,72.5,40.2,26.40,WNW,285,0.0,0.0,31,0.00,,---,0.00,VWS V14.01,2013-06-15 00:55:00,
2013-06-14 19:56:00,72.5,40.2,26.40,WNW,285,0.0,0.0,31,0.00,,---,0.00,VWS V14.01,2013-06-15 00:56:00,
2013-06-14 19:58:00,72.1,39.9,26.40,WNW,285,0.0,0.0,31,0.00,,---,0.00,VWS V14.01,2013-06-15 00:58:00,
2013-06-14 20:00:00,72.1,39.9,26.40,WNW,285,0.0,0.0,31,0.00,,---,0.00,VWS V14.01,2013-06-15 01:00:00,
2013-06-14 20:01:00,72.1,39.9,26.40,WNW,285,0.0,0.0,31,0.00,,---,0.00,VWS V14.01,2013-06-15 01:01:00,
2013-06-14 20:02:00,72.0,40.5,26.40,WNW,285,0.0,0.0,32,0.00,,---,0.00,VWS V14.01,2013-06-15 01:02:00,
2013-06-14 20:03:00,71.8,40.4,26.40,WNW,285,0.0,0.0,32,0.00,,---,0.00,VWS V14.01,2013-06-15 01:03:00,
2013-06-14 20:05:00,71.8,40.4,26.40,WNW,285,0.0,0.0,32,0.00,,---,0.00,VWS V14.01,2013-06-15 01:05:00,
2013-06-14 20:06:00,71.8,40.4,26.40,WNW,285,0.0,0.0,32,0.00,,---,0.00,VWS V14.01,2013-06-15 01:06:00,
2013-06-14 20:07:00,71.8,40.4,26.40,WNW,285,0.0,0.0,32,0.00,,---,0.00,VWS V14.01,2013-06-15 01:07:00,
2013-06-14 20:09:00,71.6,40.2,26.40,WNW,285,0.0,0.0,32,0.00,,---,0.00,VWS V14.01,2013-06-15 01:09:00,
2013-06-14 20:10:00,71.4,40.0,26.40,WNW,285,0.0,0.0,32,0.00,,---,0.00,VWS V14.01,2013-06-15 01:10:00,
2013-06-14 20:11:00,71.4,40.0,26.40,WNW,285,0.0,0.0,32,0.00,,---,0.00,VWS V14.01,2013-06-15 01:11:00,
2013-06-14 20:12:00,71.4,40.0,26.40,WNW,285,0.0,0.0,32,0.00,,---,0.00,VWS V14.01,2013-06-15 01:12:00,
2013-06-14 20:14:00,71.2,39.9,26.40,WNW,285,0.0,0.0,32,0.00,,---,0.00,VWS V14.01,2013-06-15 01:14:00,
2013-06-14 20:16:00,71.1,39.7,26.40,WNW,285,0.0,0.0,32,0.00,,---,0.00,VWS V14.01,2013-06-15 01:16:00,
2013-06-14 20:17:00,71.1,39.7,26.40,WNW,285,0.0,0.0,32,0.00,,---,0.00,VWS V14.01,2013-06-15 01:17:00,
2013-06-14 20:19:00,70.9,40.4,26.40,WNW,285,0.0,0.0,33,0.00,,---,0.00,VWS V14.01,2013-06-15 01:19:00,
2013-06-14 20:21:00,70.9,40.4,26.40,WNW,285,0.0,0.0,33,0.00,,---,0.00,VWS V14.01,2013-06-15 01:21:00,
2013-06-14 20:22:00,70.9,40.4,26.40,WNW,285,0.0,0.0,33,0.00,,---,0.00,VWS V14.01,2013-06-15 01:22:00,
2013-06-14 20:24:00,70.7,40.2,26.40,WNW,285,0.0,0.0,33,0.00,,---,0.00,VWS V14.01,2013-06-15 01:24:00,
2013-06-14 20:26:00,70.5,40.1,17.72,WNW,285,0.0,0.0,33,0.00,,---,0.00,VWS V14.01,2013-06-15 01:26:00,
2013-06-14 20:27:00,70.5,40.1,17.72,WNW,285,0.0,0.0,33,0.00,,---,0.00,VWS V14.01,2013-06-15 01:27:00,
2013-06-14 20:29:00,70.5,40.1,17.72,WNW,285,0.0,0.0,33,0.00,,---,0.00,VWS V14.01,2013-06-15 01:29:00,
2013-06-14 20:31:00,70.3,39.9,17.72,WNW,285,0.0,0.0,33,0.00,,---,0.00,VWS V14.01,2013-06-15 01:31:00,
2013-06-14 20:32:00,70.3,39.9,17.72,WNW,285,0.0,0.0,33,0.00,,---,0.00,VWS V14.01,2013-06-15 01:32:00,
2013-06-14 20:34:00,70.2,39.7,17.72,WNW,285,0.0,0.0,33,0.00,,---,0.00,VWS V14.01,2013-06-15 01:34:00,
2013-06-14 20:36:00,70.2,40.5,17.72,WNW,285,0.0,0.0,34,0.00,,---,0.00,VWS V14.01,2013-06-15 01:36:00,
2013-06-14 20:37:00,70.0,40.3,17.72,WNW,285,0.0,0.0,34,0.00,,---,0.00,VWS V14.01,2013-06-15 01:37:00,
2013-06-14 20:38:00,70.0,40.3,17.72,WNW,285,0.0,0.0,34,0.00,,---,0.00,VWS V14.01,2013-06-15 01:38:00,
2013-06-14 20:39:00,70.0,40.3,17.72,WNW,285,0.0,0.0,34,0.00,,---,0.00,VWS V14.01,2013-06-15 01:39:00,
2013-06-14 20:41:00,70.0,40.3,17.72,WNW,285,0.0,0.0,34,0.00,,---,0.00,VWS V14.01,2013-06-15 01:41:00,
2013-06-14 20:42:00,70.0,40.3,17.72,WNW,285,0.0,0.0,34,0.00,,---,0.00,VWS V14.01,2013-06-15 01:42:00,
2013-06-14 20:43:00,70.0,40.3,17.72,WNW,285,0.0,0.0,34,0.00,,---,0.00,VWS V14.01,2013-06-15 01:43:00,
2013-06-14 20:45:00,69.8,40.2,17.72,WNW,285,0.0,0.0,34,0.00,,---,0.00,VWS V14.01,2013-06-15 01:45:00,
2013-06-14 20:47:00,69.6,40.0,17.72,WNW,285,0.0,0.0,34,0.00,,---,0.00,VWS V14.01,2013-06-15 01:47:00,
2013-06-14 20:48:00,69.6,40.0,17.72,WSW,258,0.0,0.0,34,0.00,,---,0.00,VWS V14.01,2013-06-15 01:48:00,
2013-06-14 20:50:00,69.4,40.6,17.72,WSW,258,0.0,0.0,35,0.00,,---,0.00,VWS V14.01,2013-06-15 01:50:00,
2013-06-14 20:52:00,69.3,40.5,17.72,WSW,258,0.0,0.0,35,0.00,,---,0.00,VWS V14.01,2013-06-15 01:52:00,
2013-06-14 20:53:00,69.3,41.2,17.72,WSW,258,0.0,0.0,36,0.00,,---,0.00,VWS V14.01,2013-06-15 01:53:00,
2013-06-14 20:55:00,69.3,41.2,17.72,WSW,258,0.0,0.0,36,0.00,,---,0.00,VWS V14.01,2013-06-15 01:55:00,
2013-06-14 20:57:00,69.1,41.0,17.72,WSW,258,0.0,0.0,36,0.00,,---,0.00,VWS V14.01,2013-06-15 01:57:00,
2013-06-14 20:58:00,69.1,41.0,17.72,WSW,258,0.0,0.0,36,0.00,,---,0.00,VWS V14.01,2013-06-15 01:58:00,
2013-06-14 20:59:00,69.1,41.0,17.72,WSW,258,0.0,0.0,36,0.00,,---,0.00,VWS V14.01,2013-06-15 01:59:00,
2013-06-14 21:00:00,68.9,40.9,17.72,WSW,258,0.0,0.0,36,0.00,,---,0.00,VWS V14.01,2013-06-15 02:00:00,
2013-06-14 21:02:00,68.9,40.9,17.72,WSW,258,0.0,0.0,36,0.00,,---,0.00,VWS V14.01,2013-06-15 02:02:00,
2013-06-14 21:03:00,68.9,40.9,17.72,WSW,258,0.0,0.0,36,0.00,,---,0.00,VWS V14.01,2013-06-15 02:03:00,
2013-06-14 21:04:00,68.9,40.9,17.72,WSW,258,0.0,0.0,36,0.00,,---,0.00,VWS V14.01,2013-06-15 02:04:00,
2013-06-14 21:05:00,68.9,40.9,17.72,WSW,258,0.0,0.0,36,0.00,,---,0.00,VWS V14.01,2013-06-15 02:05:00,
2013-06-14 21:07:00,68.7,40.7,17.72,WSW,258,0.0,0.0,36,0.00,,---,0.00,VWS V14.01,2013-06-15 02:07:00,
2013-06-14 21:08:00,68.7,40.7,17.72,WSW,258,0.0,0.0,36,0.00,,---,0.00,VWS V14.01,2013-06-15 02:08:00,
2013-06-14 21:09:00,68.7,40.7,17.72,WSW,258,0.0,0.0,36,0.00,,---,0.00,VWS V14.01,2013-06-15 02:09:00,
2013-06-14 21:10:00,68.7,40.7,17.72,WSW,258,0.0,0.0,36,0.00,,---,0.00,VWS V14.01,2013-06-15 02:10:00,
2013-06-14 21:12:00,68.5,40.5,17.72,WSW,258,0.0,0.0,36,0.00,,---,0.00,VWS V14.01,2013-06-15 02:12:00,
2013-06-14 21:13:00,68.5,40.5,17.72,WSW,258,0.0,0.0,36,0.00,,---,0.00,VWS V14.01,2013-06-15 02:13:00,
2013-06-14 21:14:00,68.5,40.5,17.72,WSW,258,0.0,0.0,36,0.00,,---,0.00,VWS V14.01,2013-06-15 02:14:00,
2013-06-14 21:15:00,68.5,40.5,17.72,WSW,258,0.0,0.0,36,0.00,,---,0.00,VWS V14.01,2013-06-15 02:15:00,
2013-06-14 21:17:00,68.5,40.5,17.72,WSW,258,0.0,0.0,36,0.00,,---,0.00,VWS V14.01,2013-06-15 02:17:00,
2013-06-14 21:18:00,68.4,40.4,17.72,WSW,258,0.0,0.0,36,0.00,,---,0.00,VWS V14.01,2013-06-15 02:18:00,
2013-06-14 21:19:00,68.4,40.4,17.72,WSW,258,0.0,0.0,36,0.00,,---,0.00,VWS V14.01,2013-06-15 02:19:00,
2013-06-14 21:20:00,68.4,40.4,17.72,WSW,258,0.0,0.0,36,0.00,,---,0.00,VWS V14.01,2013-06-15 02:20:00,
2013-06-14 21:22:00,68.4,40.4,17.72,WSW,258,0.0,0.0,36,0.00,,---,0.00,VWS V14.01,2013-06-15 02:22:00,
2013-06-14 21:23:00,68.4,40.4,17.72,WSW,258,0.0,0.0,36,0.00,,---,0.00,VWS V14.01,2013-06-15 02:23:00,
2013-06-14 21:24:00,68.4,40.4,17.72,WSW,258,0.0,0.0,36,0.00,,---,0.00,VWS V14.01,2013-06-15 02:24:00,
2013-06-14 21:25:00,68.2,40.2,17.72,WSW,258,0.0,0.0,36,0.00,,---,0.00,VWS V14.01,2013-06-15 02:25:00,
2013-06-14 21:27:00,68.2,40.2,17.72,WSW,258,0.0,0.0,36,0.00,,---,0.00,VWS V14.01,2013-06-15 02:27:00,
2013-06-14 21:28:00,68.2,40.2,17.72,WSW,258,0.0,0.0,36,0.00,,---,0.00,VWS V14.01,2013-06-15 02:28:00,
2013-06-14 21:29:00,68.2,40.2,17.72,WSW,258,0.0,0.0,36,0.00,,---,0.00,VWS V14.01,2013-06-15 02:29:00,
2013-06-14 21:31:00,68.2,40.2,17.72,WSW,258,0.0,0.0,36,0.00,,---,0.00,VWS V14.01,2013-06-15 02:31:00,
2013-06-14 21:32:00,68.0,40.1,17.72,WSW,258,0.0,0.0,36,0.00,,---,0.00,VWS V14.01,2013-06-15 02:32:00,
2013-06-14 21:33:00,68.0,40.1,17.72,WSW,258,0.0,0.0,36,0.00,,---,0.00,VWS V14.01,2013-06-15 02:33:00,
2013-06-14 21:34:00,68.0,40.1,17.72,WSW,258,0.0,0.0,36,0.00,,---,0.00,VWS V14.01,2013-06-15 02:34:00,
2013-06-14 21:36:00,68.0,40.1,17.72,WSW,258,0.0,0.0,36,0.00,,---,0.00,VWS V14.01,2013-06-15 02:36:00,
2013-06-14 21:37:00,68.0,40.1,17.72,WSW,258,0.0,0.0,36,0.00,,---,0.00,VWS V14.01,2013-06-15 02:37:00,
2013-06-14 21:38:00,68.0,40.1,17.72,WSW,258,0.0,0.0,36,0.00,,---,0.00,VWS V14.01,2013-06-15 02:38:00,
2013-06-14 21:39:00,68.0,40.1,17.72,WSW,258,0.0,0.0,36,0.00,,---,0.00,VWS V14.01,2013-06-15 02:39:00,
2013-06-14 21:40:00,68.0,40.1,17.72,WSW,258,0.0,0.0,36,0.00,,---,0.00,VWS V14.01,2013-06-15 02:40:00,
2013-06-14 21:41:00,68.0,40.1,17.72,WSW,258,0.0,0.0,36,0.00,,---,0.00,VWS V14.01,2013-06-15 02:41:00,
2013-06-14 21:42:00,68.0,40.1,17.72,WSW,258,0.0,0.0,36,0.00,,---,0.00,VWS V14.01,2013-06-15 02:42:00,
2013-06-14 21:43:00,68.0,40.1,17.72,NW,311,3.1,3.1,36,0.00,,---,0.00,VWS V14.01,2013-06-15 02:43:00,
2013-06-14 21:45:00,68.0,40.1,17.72,NW,311,0.0,0.0,36,0.00,,---,0.00,VWS V14.01,2013-06-15 02:45:00,
2013-06-14 21:46:00,68.0,40.1,17.72,NW,312,0.0,0.0,36,0.00,,---,0.00,VWS V14.01,2013-06-15 02:46:00,
2013-06-14 21:48:00,68.0,40.1,17.72,NW,312,0.0,0.0,36,0.00,,---,0.00,VWS V14.01,2013-06-15 02:48:00,
2013-06-14 21:49:00,68.2,40.2,17.72,NW,312,0.0,0.0,36,0.00,,---,0.00,VWS V14.01,2013-06-15 02:49:00,
2013-06-14 21:50:00,68.0,40.1,17.72,NW,312,0.0,0.0,36,0.00,,---,0.00,VWS V14.01,2013-06-15 02:50:00,
2013-06-14 21:51:00,68.0,40.1,17.72,NW,312,0.0,0.0,36,0.00,,---,0.00,VWS V14.01,2013-06-15 02:51:00,
2013-06-14 21:53:00,67.8,39.9,17.72,NW,312,0.0,0.0,36,0.00,,---,0.00,VWS V14.01,2013-06-15 02:53:00,
2013-06-14 21:54:00,67.8,40.6,17.72,NW,312,0.0,0.0,37,0.00,,---,0.00,VWS V14.01,2013-06-15 02:54:00,
2013-06-14 21:55:00,67.8,40.6,17.72,NW,312,0.0,0.0,37,0.00,,---,0.00,VWS V14.01,2013-06-15 02:55:00,
2013-06-14 21:57:00,67.6,40.5,17.72,NW,312,0.0,0.0,37,0.00,,---,0.00,VWS V14.01,2013-06-15 02:57:00,
2013-06-14 21:58:00,67.6,41.2,17.72,NW,312,0.0,0.0,38,0.00,,---,0.00,VWS V14.01,2013-06-15 02:58:00,
2013-06-14 21:59:00,67.6,41.2,17.72,NW,312,0.0,0.0,38,0.00,,---,0.00,VWS V14.01,2013-06-15 02:59:00,
2013-06-14 22:00:00,67.5,41.0,17.72,NW,312,0.0,0.0,38,0.00,,---,0.00,VWS V14.01,2013-06-15 03:00:00,
2013-06-14 22:02:00,67.5,41.0,17.72,NW,312,0.0,0.0,38,0.00,,---,0.00,VWS V14.01,2013-06-15 03:02:00,
2013-06-14 22:03:00,67.5,41.0,17.72,NW,312,0.0,0.0,38,0.00,,---,0.00,VWS V14.01,2013-06-15 03:03:00,
2013-06-14 22:04:00,67.5,41.0,17.72,NW,312,0.0,0.0,38,0.00,,---,0.00,VWS V14.01,2013-06-15 03:04:00,
2013-06-14 22:05:00,67.5,41.0,17.72,NW,312,0.0,0.0,38,0.00,,---,0.00,VWS V14.01,2013-06-15 03:05:00,
2013-06-14 22:06:00,67.5,41.0,17.72,NW,312,0.0,0.0,38,0.00,,---,0.00,VWS V14.01,2013-06-15 03:06:00,
2013-06-14 22:07:00,67.3,40.8,17.72,NW,312,0.0,0.0,38,0.00,,---,0.00,VWS V14.01,2013-06-15 03:07:00,
2013-06-14 22:09:00,67.3,40.8,17.72,NW,312,0.0,0.0,38,0.00,,---,0.00,VWS V14.01,2013-06-15 03:09:00,
2013-06-14 22:10:00,67.3,40.8,21.68,NW,312,0.0,0.0,38,0.00,,---,0.00,VWS V14.01,2013-06-15 03:10:00,
2013-06-14 22:11:00,67.3,40.8,21.68,NW,312,0.0,0.0,38,0.00,,---,0.00,VWS V14.01,2013-06-15 03:11:00,
2013-06-14 22:12:00,67.1,40.7,21.68,NW,312,0.0,0.0,38,0.00,,---,0.00,VWS V14.01,2013-06-15 03:12:00,
2013-06-14 22:14:00,67.1,40.7,21.68,NW,312,0.0,0.0,38,0.00,,---,0.00,VWS V14.01,2013-06-15 03:14:00,
2013-06-14 22:15:00,67.1,40.7,21.68,NW,312,0.0,0.0,38,0.00,,---,0.00,VWS V14.01,2013-06-15 03:15:00,
2013-06-14 22:16:00,67.1,40.7,21.68,NW,312,0.0,0.0,38,0.00,,---,0.00,VWS V14.01,2013-06-15 03:16:00,
2013-06-14 22:17:00,66.9,40.5,21.68,NW,312,0.0,0.0,38,0.00,,---,0.00,VWS V14.01,2013-06-15 03:17:00,
2013-06-14 22:19:00,66.9,40.5,21.68,NW,312,0.0,0.0,38,0.00,,---,0.00,VWS V14.01,2013-06-15 03:19:00,
2013-06-14 22:21:00,66.7,40.3,21.68,NW,312,0.0,0.0,38,0.00,,---,0.00,VWS V14.01,2013-06-15 03:21:00,
2013-06-14 22:22:00,66.7,41.0,21.68,NW,312,0.0,0.0,39,0.00,,---,0.00,VWS V14.01,2013-06-15 03:22:00,
2013-06-14 22:23:00,66.7,41.0,21.68,NW,312,0.0,0.0,39,0.00,,---,0.00,VWS V14.01,2013-06-15 03:23:00,
2013-06-14 22:24:00,66.7,41.0,17.72,NW,312,0.0,0.0,39,0.00,,---,0.00,VWS V14.01,2013-06-15 03:24:00,
2013-06-14 22:26:00,66.6,40.9,17.72,NW,312,0.0,0.0,39,0.00,,---,0.00,VWS V14.01,2013-06-15 03:26:00,
2013-06-14 22:27:00,66.6,40.9,17.72,NW,312,0.0,0.0,39,0.00,,---,0.00,VWS V14.01,2013-06-15 03:27:00,
2013-06-14 22:28:00,66.6,40.9,17.72,NW,312,0.0,0.0,39,0.00,,---,0.00,VWS V14.01,2013-06-15 03:28:00,
2013-06-14 22:29:00,66.6,41.5,17.72,NW,312,0.0,0.0,40,0.00,,---,0.00,VWS V14.01,2013-06-15 03:29:00,
2013-06-14 22:31:00,66.6,41.5,17.72,NW,312,0.0,0.0,40,0.00,,---,0.00,VWS V14.01,2013-06-15 03:31:00,
2013-06-14 22:32:00,66.6,41.5,17.72,NW,312,0.0,0.0,40,0.00,,---,0.00,VWS V14.01,2013-06-15 03:32:00,
2013-06-14 22:33:00,66.6,41.5,17.72,NW,312,0.0,0.0,40,0.00,,---,0.00,VWS V14.01,2013-06-15 03:33:00,
2013-06-14 22:34:00,66.6,41.5,17.72,NW,312,0.0,0.0,40,0.00,,---,0.00,VWS V14.01,2013-06-15 03:34:00,
2013-06-14 22:36:00,66.6,41.5,17.72,NW,312,0.0,0.0,40,0.00,,---,0.00,VWS V14.01,2013-06-15 03:36:00,
2013-06-14 22:37:00,66.6,41.5,17.72,NW,312,0.0,0.0,40,0.00,,---,0.00,VWS V14.01,2013-06-15 03:37:00,
2013-06-14 22:38:00,66.4,41.3,17.72,NW,312,0.0,0.0,40,0.00,,---,0.00,VWS V14.01,2013-06-15 03:38:00,
2013-06-14 22:39:00,66.4,41.3,17.72,NW,312,0.0,0.0,40,0.00,,---,0.00,VWS V14.01,2013-06-15 03:39:00,
2013-06-14 22:41:00,66.4,41.3,17.72,NW,312,0.0,0.0,40,0.00,,---,0.00,VWS V14.01,2013-06-15 03:41:00,
2013-06-14 22:42:00,66.4,41.3,17.72,NW,312,0.0,0.0,40,0.00,,---,0.00,VWS V14.01,2013-06-15 03:42:00,
2013-06-14 22:43:00,66.4,41.3,17.72,NW,312,0.0,0.0,40,0.00,,---,0.00,VWS V14.01,2013-06-15 03:43:00,
2013-06-14 22:44:00,66.4,41.3,17.72,NW,312,0.0,0.0,40,0.00,,---,0.00,VWS V14.01,2013-06-15 03:44:00,
2013-06-14 22:46:00,66.4,41.3,17.72,NW,312,0.0,0.0,40,0.00,,---,0.00,VWS V14.01,2013-06-15 03:46:00,
2013-06-14 22:47:00,66.4,41.3,17.72,NW,312,0.0,0.0,40,0.00,,---,0.00,VWS V14.01,2013-06-15 03:47:00,
2013-06-14 22:48:00,66.4,41.3,17.72,NW,312,0.0,0.0,40,0.00,,---,0.00,VWS V14.01,2013-06-15 03:48:00,
2013-06-14 22:49:00,66.4,41.3,17.72,NW,312,0.0,0.0,40,0.00,,---,0.00,VWS V14.01,2013-06-15 03:49:00,
2013-06-14 22:50:00,66.4,41.3,17.72,NW,312,0.0,0.0,40,0.00,,---,0.00,VWS V14.01,2013-06-15 03:50:00,
2013-06-14 22:51:00,66.4,41.3,17.72,NW,312,0.0,0.0,40,0.00,,---,0.00,VWS V14.01,2013-06-15 03:51:00,
2013-06-14 22:52:00,66.4,41.3,17.72,NW,312,0.0,0.0,40,0.00,,---,0.00,VWS V14.01,2013-06-15 03:52:00,
2013-06-14 22:54:00,66.4,41.3,17.72,NW,312,0.0,0.0,40,0.00,,---,0.00,VWS V14.01,2013-06-15 03:54:00,
2013-06-14 22:55:00,66.4,41.3,24.51,NW,312,0.0,0.0,40,0.00,,---,0.00,VWS V14.01,2013-06-15 03:55:00,
2013-06-14 22:57:00,66.4,41.3,24.51,NW,312,0.0,0.0,40,0.00,,---,0.00,VWS V14.01,2013-06-15 03:57:00,
2013-06-14 22:59:00,66.4,40.7,24.51,NW,312,0.0,0.0,39,0.00,,---,0.00,VWS V14.01,2013-06-15 03:59:00,
2013-06-14 23:00:00,66.4,40.7,24.51,NW,312,0.0,0.0,39,0.00,,---,0.00,VWS V14.01,2013-06-15 04:00:00,
2013-06-14 23:01:00,66.4,40.7,24.51,NW,312,0.0,0.0,39,0.00,,---,0.00,VWS V14.01,2013-06-15 04:01:00,
2013-06-14 23:06:00,66.4,40.7,24.51,NW,312,0.0,0.0,39,0.00,,---,0.00,VWS V14.01,2013-06-15 04:06:00,
2013-06-14 23:11:00,66.4,41.3,20.73,NW,312,0.0,0.0,40,0.00,,---,0.00,VWS V14.01,2013-06-15 04:11:00,
2013-06-14 23:16:00,66.2,41.2,20.73,NW,312,0.0,0.0,40,0.00,,---,0.00,VWS V14.01,2013-06-15 04:16:00,
2013-06-14 23:21:00,66.2,41.2,20.73,NW,312,0.0,0.0,40,0.00,,---,0.00,VWS V14.01,2013-06-15 04:21:00,
2013-06-14 23:26:00,66.2,41.2,20.73,NW,312,0.0,0.0,40,0.00,,---,0.00,VWS V14.01,2013-06-15 04:26:00,
2013-06-14 23:31:00,66.2,41.2,22.59,NW,312,0.0,0.0,40,0.00,,---,0.00,VWS V14.01,2013-06-15 04:31:00,
2013-06-14 23:36:00,66.2,41.2,22.59,NW,312,0.0,0.0,40,0.00,,---,0.00,VWS V14.01,2013-06-15 04:36:00,
2013-06-14 23:41:00,66.2,41.2,22.56,NW,312,0.0,0.0,40,0.00,,---,0.00,VWS V14.01,2013-06-15 04:41:00,
2013-06-14 23:42:00,66.2,41.2,22.56,NW,312,0.0,0.0,40,0.00,,---,0.00,VWS V14.01,2013-06-15 04:42:00,
2013-06-14 23:46:00,66.0,41.7,22.56,NW,312,0.0,0.0,41,0.00,,---,0.00,VWS V14.01,2013-06-15 04:46:00,
2013-06-14 23:47:00,66.0,41.7,22.56,NW,312,0.0,0.0,41,0.00,,---,0.00,VWS V14.01,2013-06-15 04:47:00,
2013-06-14 23:51:00,66.0,41.7,22.56,NW,312,0.0,0.0,41,0.00,,---,0.00,VWS V14.01,2013-06-15 04:51:00,
2013-06-14 23:52:00,66.0,41.7,22.56,NW,312,0.0,0.0,41,0.00,,---,0.00,VWS V14.01,2013-06-15 04:52:00,
2013-06-14 23:56:00,66.0,41.7,18.84,NW,312,0.0,0.0,41,0.00,,---,0.00,VWS V14.01,2013-06-15 04:56:00,
2013-06-14 23:57:00,66.0,41.7,18.84,NW,312,0.0,0.0,41,0.00,,---,0.00,VWS V14.01,2013-06-15 04:57:00,
2013-06-14 23:58:00,66.0,41.7,18.84,NW,312,0.0,0.0,41,0.00,,---,0.00,VWS V14.01,2013-06-15 04:58:00,